Latitude: N 50° 09' 49" Longitude: W 05° 11' 53" Elevation: 168m ASL

There are 21 visitors online

Adverts

<- Previous Day | Today | Next Day ->

All Data for 12 July 2018

Time
A - D
Temp
A - D
Dew Point
A - D
Humidity
A - D
Pressure
A - D
Wind
A - D
Wind Dir Gust
A - D
Rain Rate
A - D
Rain Total
00:00 17.4 14.9 85 1021.7 1.6 N 3.1 0.0 0.0
00:01 17.4 14.9 85 1021.8 1.6 N 3.1 0.0 0.0
00:02 17.4 14.9 85 1021.8 1.6 N 3.1 0.0 0.0
00:03 17.4 14.9 85 1021.8 1.6 N 3.1 0.0 0.0
00:04 17.4 14.9 85 1021.8 1.6 N 2.2 0.0 0.0
00:05 17.4 15.0 86 1021.8 1.6 NW 2.2 0.0 0.0
00:06 17.4 15.0 86 1021.8 1.6 N 2.2 0.0 0.0
00:07 17.4 15.0 86 1021.8 1.6 N 2.2 0.0 0.0
00:08 17.4 15.0 86 1021.8 0.7 N 2.2 0.0 0.0
00:09 17.4 15.0 86 1021.8 1.6 NW 2.2 0.0 0.0
00:10 17.4 15.0 86 1021.8 0.7 N 2.2 0.0 0.0
00:11 17.4 15.0 86 1021.8 0.7 N 2.2 0.0 0.0
00:12 17.4 15.0 86 1021.7 0.7 N 2.2 0.0 0.0
00:13 17.4 15.0 86 1021.8 1.6 N 2.2 0.0 0.0
00:14 17.4 15.0 86 1021.8 1.6 N 2.2 0.0 0.0
00:15 17.4 15.0 86 1021.8 1.6 NW 2.2 0.0 0.0
00:16 17.4 15.0 86 1021.8 2.2 NW 2.2 0.0 0.0
00:17 17.4 15.0 86 1021.7 2.2 NW 2.2 0.0 0.0
00:19 17.4 15.0 86 1021.6 1.6 N 2.2 0.0 0.0
00:20 17.4 15.0 86 1021.7 0.7 N 2.2 0.0 0.0
00:21 17.4 15.0 86 1021.8 3.1 NW 3.1 0.0 0.0
00:22 17.4 15.0 86 1021.8 2.2 NW 3.1 0.0 0.0
00:23 17.4 15.0 86 1021.9 2.2 N 3.1 0.0 0.0
00:24 17.4 15.0 86 1021.8 1.6 NW 3.1 0.0 0.0
00:25 17.4 15.0 86 1021.8 1.6 NE 3.1 0.0 0.0
00:26 17.4 15.0 86 1021.8 2.2 N 3.1 0.0 0.0
00:27 17.4 15.0 86 1021.8 2.2 N 3.1 0.0 0.0
00:28 17.4 15.0 86 1021.8 3.1 NW 3.1 0.0 0.0
00:29 17.4 15.0 86 1021.8 2.2 NE 3.1 0.0 0.0
00:30 17.4 15.0 86 1021.8 4.5 N 4.5 0.0 0.0
00:31 17.4 15.0 86 1021.6 2.2 NE 4.5 0.0 0.0
00:32 17.4 15.0 86 1021.7 3.1 E 4.5 0.0 0.0
00:33 17.4 15.0 86 1021.8 3.1 N 4.5 0.0 0.0
00:34 17.4 15.0 86 1021.8 2.2 N 4.5 0.0 0.0
00:35 17.4 15.2 87 1021.8 2.2 N 4.5 0.0 0.0
00:36 17.4 15.2 87 1021.7 2.2 WNW 4.5 0.0 0.0
00:37 17.4 15.2 87 1021.7 2.2 N 4.5 0.0 0.0
00:39 17.4 15.2 87 1021.8 1.6 NW 4.5 0.0 0.0
00:40 17.4 15.2 87 1021.7 3.1 SW 3.1 0.0 0.0
00:41 17.4 15.2 87 1021.8 1.6 N 3.1 0.0 0.0
00:42 17.4 15.2 87 1021.8 2.2 NW 3.1 0.0 0.0
00:43 17.4 15.2 87 1021.7 3.1 N 3.1 0.0 0.0
00:44 17.4 15.2 87 1021.7 3.1 N 3.1 0.0 0.0
00:45 17.4 15.2 87 1021.8 2.2 NW 3.1 0.0 0.0
00:46 17.4 15.2 87 1021.8 2.2 NW 3.1 0.0 0.0
00:47 17.3 15.1 87 1021.8 1.6 N 3.1 0.0 0.0
00:48 17.4 15.2 87 1021.9 1.6 NE 3.1 0.0 0.0
00:49 17.4 15.2 87 1021.7 3.8 NE 3.8 0.0 0.0
00:50 17.4 15.2 87 1021.7 1.6 NE 3.8 0.0 0.0
00:51 17.3 15.1 87 1021.8 3.1 N 3.8 0.0 0.0
00:52 17.3 15.1 87 1021.7 2.2 N 3.8 0.0 0.0
00:53 17.4 15.2 87 1021.8 3.8 N 3.8 0.0 0.0
00:54 17.3 15.1 87 1021.8 1.6 N 3.8 0.0 0.0
00:55 17.3 15.1 87 1021.8 3.8 NW 3.8 0.0 0.0
00:56 17.3 15.1 87 1021.7 4.5 N 4.5 0.0 0.0
00:58 17.4 15.4 88 1021.7 3.8 N 4.5 0.0 0.0
00:59 17.3 15.3 88 1021.6 2.2 N 4.5 0.0 0.0
01:00 17.3 15.3 88 1021.6 3.1 N 4.5 0.0 0.0
01:01 17.3 15.3 88 1021.6 3.1 N 4.5 0.0 0.0
01:02 17.3 15.3 88 1021.7 3.1 N 4.5 0.0 0.0
01:03 17.3 15.3 88 1021.6 3.1 N 4.5 0.0 0.0
01:04 17.3 15.3 88 1021.6 3.1 N 4.5 0.0 0.0
01:35 17.4 15.6 89 1021.7 2.2 N 3.8 0.0 0.0
01:36 17.4 15.4 88 1021.5 2.2 NE 3.8 0.0 0.0
01:38 17.4 15.6 89 1021.7 2.2 NW 3.8 0.0 0.0
01:39 17.4 15.6 89 1021.7 1.6 N 3.8 0.0 0.0
01:40 17.3 15.5 89 1021.5 3.1 N 3.8 0.0 0.0
01:41 17.4 15.6 89 1021.7 2.2 NW 3.8 0.0 0.0
01:42 17.3 15.5 89 1021.7 1.6 N 3.8 0.0 0.0
01:43 17.3 15.5 89 1021.7 1.6 N 3.8 0.0 0.0
01:44 17.3 15.5 89 1021.6 2.2 N 3.8 0.0 0.0
01:45 17.3 15.5 89 1021.5 1.6 NW 3.1 0.0 0.0
01:46 17.3 15.5 89 1021.7 2.2 N 3.1 0.0 0.0
01:47 17.3 15.5 89 1021.6 2.2 N 3.1 0.0 0.0
01:48 17.3 15.5 89 1021.6 2.2 N 3.1 0.0 0.0
01:49 17.3 15.5 89 1021.6 2.2 N 3.1 0.0 0.0
01:50 17.3 15.5 89 1021.7 2.2 N 3.1 0.0 0.0
01:51 17.3 15.3 88 1021.6 3.8 N 3.8 0.0 0.0
01:52 17.3 15.3 88 1021.6 2.2 N 3.8 0.0 0.0
01:53 17.3 15.5 89 1021.6 0.7 N 3.8 0.0 0.0
01:54 17.3 15.3 88 1021.6 2.2 NW 3.8 0.0 0.0
01:55 17.3 15.3 88 1021.6 2.2 NE 3.8 0.0 0.0
01:57 17.3 15.3 88 1021.7 1.6 NE 3.8 0.0 0.0
01:58 17.3 15.3 88 1021.5 1.6 NW 3.8 0.0 0.0
01:59 17.3 15.3 88 1021.5 1.6 NW 3.8 0.0 0.0
02:00 17.3 15.3 88 1021.5 1.6 NW 3.8 0.0 0.0
02:01 17.3 15.3 88 1021.7 0.7 N 3.1 0.0 0.0
02:02 17.2 15.2 88 1021.5 2.2 N 2.2 0.0 0.0
02:03 17.2 15.2 88 1021.5 2.2 N 2.2 0.0 0.0
02:04 17.2 15.2 88 1021.7 3.1 N 3.1 0.0 0.0
02:05 17.2 15.2 88 1021.4 1.6 N 3.1 0.0 0.0
02:06 17.3 15.3 88 1021.7 2.2 E 3.1 0.0 0.0
02:07 17.3 15.3 88 1021.5 3.1 NE 3.1 0.0 0.0
02:08 17.2 15.2 88 1021.5 1.6 N 3.1 0.0 0.0
02:09 17.2 15.2 88 1021.5 3.1 N 3.1 0.0 0.0
02:10 17.2 15.2 88 1021.6 2.2 NE 3.1 0.0 0.0
02:11 17.2 15.2 88 1021.6 3.1 N 3.1 0.0 0.0
02:12 17.2 15.2 88 1021.6 2.2 N 3.1 0.0 0.0
02:13 17.2 15.2 88 1021.5 1.6 NE 3.1 0.0 0.0
02:14 17.2 15.2 88 1021.6 2.2 N 3.1 0.0 0.0
02:16 17.2 15.2 88 1021.6 2.2 N 3.1 0.0 0.0
02:17 17.2 15.2 88 1021.6 3.1 N 3.1 0.0 0.0
02:18 17.2 15.2 88 1021.6 2.2 NW 3.1 0.0 0.0
02:19 17.2 15.2 88 1021.6 1.6 N 3.1 0.0 0.0
02:20 17.2 15.2 88 1021.7 2.2 N 3.1 0.0 0.0
02:21 17.2 15.2 88 1021.6 1.6 E 3.1 0.0 0.0
02:22 17.2 15.2 88 1021.6 1.6 E 3.1 0.0 0.0
02:23 17.2 15.2 88 1021.5 1.6 N 3.1 0.0 0.0
02:24 17.2 15.2 88 1021.7 2.2 NW 3.1 0.0 0.0
02:25 17.2 15.2 88 1021.5 1.6 NW 3.1 0.0 0.0
02:26 17.2 15.2 88 1021.5 1.6 N 3.1 0.0 0.0
02:27 17.2 15.2 88 1021.5 1.6 N 3.1 0.0 0.0
02:28 17.2 15.2 88 1021.4 2.2 N 3.1 0.0 0.0
02:29 17.2 15.2 88 1021.5 2.2 N 3.1 0.0 0.0
02:30 17.2 15.2 88 1021.6 2.2 NE 3.1 0.0 0.0
02:31 17.2 15.2 88 1021.6 0.7 N 3.1 0.0 0.0
02:32 17.1 15.1 88 1021.7 0.0 NW 2.2 0.0 0.0
02:33 17.1 15.1 88 1021.7 0.0 N 2.2 0.0 0.0
02:35 17.1 15.1 88 1021.6 2.2 NE 2.2 0.0 0.0
02:36 17.1 15.1 88 1021.6 2.2 NE 2.2 0.0 0.0
02:37 17.1 15.1 88 1021.7 1.6 S 2.2 0.0 0.0
02:38 17.1 15.1 88 1021.6 1.6 NW 2.2 0.0 0.0
02:39 17.1 15.1 88 1021.6 3.1 NW 3.1 0.0 0.0
02:40 17.1 15.1 88 1021.7 2.2 NW 3.1 0.0 0.0
02:41 17.1 15.1 88 1021.8 0.7 NE 3.1 0.0 0.0
02:42 17.1 15.1 88 1021.8 0.7 NE 3.1 0.0 0.0
02:43 17.1 15.1 88 1021.7 2.2 NE 3.1 0.0 0.0
02:44 17.1 15.1 88 1021.6 2.2 N 3.1 0.0 0.0
02:45 17.1 15.1 88 1021.7 3.1 N 3.1 0.0 0.0
02:46 17.1 15.1 88 1021.6 2.2 NE 3.1 0.0 0.0
02:47 17.1 15.1 88 1021.6 2.2 NE 3.1 0.0 0.0
02:48 17.1 15.1 88 1021.6 3.1 N 3.1 0.0 0.0
02:49 17.1 15.1 88 1021.6 1.6 N 3.1 0.0 0.0
02:50 17.1 15.1 88 1021.8 3.1 NW 3.1 0.0 0.0
02:51 17.1 15.1 88 1021.7 3.1 NE 3.1 0.0 0.0
02:52 17.1 15.1 88 1021.8 3.1 NW 3.1 0.0 0.0
02:54 17.1 15.1 88 1021.7 2.2 N 3.1 0.0 0.0
02:55 17.1 15.1 88 1021.7 2.2 N 3.1 0.0 0.0
02:56 17.1 15.1 88 1021.7 1.6 NNE 3.1 0.0 0.0
02:57 17.1 15.1 88 1021.7 3.1 N 3.1 0.0 0.0
02:58 17.1 15.1 88 1021.6 2.2 NW 3.1 0.0 0.0
02:59 17.1 15.1 88 1021.7 2.2 N 3.1 0.0 0.0
03:00 17.1 15.1 88 1021.6 2.2 N 3.1 0.0 0.0
03:01 17.1 15.1 88 1021.6 2.2 N 3.1 0.0 0.0
03:02 17.1 15.1 88 1021.6 2.2 N 3.1 0.0 0.0
03:03 17.1 15.1 88 1021.5 2.2 N 3.1 0.0 0.0
03:04 17.1 15.1 88 1021.5 2.2 N 3.1 0.0 0.0
03:05 17.1 15.1 88 1021.5 2.2 N 3.1 0.0 0.0
03:06 17.0 15.0 88 1021.5 3.1 NE 3.1 0.0 0.0
03:07 17.0 15.0 88 1021.5 3.1 N 3.1 0.0 0.0
03:08 17.0 15.0 88 1021.5 3.1 NE 3.1 0.0 0.0
03:09 17.0 15.0 88 1021.5 3.8 NNE 3.8 0.0 0.0
03:10 17.0 15.0 88 1021.5 3.1 N 3.8 0.0 0.0
03:11 17.0 15.0 88 1021.6 2.2 NE 3.8 0.0 0.0
03:12 17.0 15.0 88 1021.5 2.2 NE 3.8 0.0 0.0
03:14 17.0 15.0 88 1021.5 2.2 N 3.8 0.0 0.0
03:15 17.0 15.0 88 1021.5 3.8 N 3.8 0.0 0.0
03:16 17.0 15.0 88 1021.4 2.2 NE 3.8 0.0 0.0
03:17 17.0 15.0 88 1021.6 2.2 NE 3.8 0.0 0.0
03:18 17.0 15.0 88 1021.6 2.2 NE 3.8 0.0 0.0
03:19 16.9 14.9 88 1021.6 2.2 NE 3.8 0.0 0.0
03:20 16.9 14.9 88 1021.6 2.2 NE 3.8 0.0 0.0
03:21 17.0 15.0 88 1021.5 3.8 WNW 3.8 0.0 0.0
03:22 17.0 15.0 88 1021.5 2.2 N 3.8 0.0 0.0
03:23 17.0 15.0 88 1021.6 2.2 N 3.8 0.0 0.0
03:24 16.9 14.9 88 1021.5 2.2 N 3.8 0.0 0.0
03:25 17.0 15.0 88 1021.6 3.1 N 3.8 0.0 0.0
03:26 17.0 15.0 88 1021.6 3.1 N 3.8 0.0 0.0
03:27 17.0 15.0 88 1021.5 3.1 N 3.8 0.0 0.0
03:28 17.0 15.0 88 1021.5 3.8 N 3.8 0.0 0.0
03:29 17.0 15.0 88 1021.5 3.1 NW 3.8 0.0 0.0
03:30 17.0 15.0 88 1021.5 2.2 N 4.5 0.0 0.0
03:31 17.0 15.0 88 1021.4 3.1 NNE 4.5 0.0 0.0
03:33 17.0 15.0 88 1021.5 3.1 NE 4.5 0.0 0.0
03:34 17.0 15.0 88 1021.4 3.8 NW 4.5 0.0 0.0
03:35 17.0 15.0 88 1021.4 3.8 N 4.5 0.0 0.0
03:36 17.0 15.0 88 1021.4 3.1 N 4.5 0.0 0.0
03:37 17.0 15.0 88 1021.4 2.2 NE 4.5 0.0 0.0
03:38 17.0 15.2 89 1021.5 3.1 NE 4.5 0.0 0.0
03:39 17.0 15.2 89 1021.7 3.1 NNE 4.5 0.0 0.0
03:40 17.0 15.2 89 1021.7 3.1 NNE 3.8 0.0 0.0
03:41 17.0 15.2 89 1021.5 3.8 N 3.8 0.0 0.0
03:42 17.0 15.2 89 1021.5 2.2 E 3.8 0.0 0.0
03:43 17.0 15.2 89 1021.5 2.2 N 3.8 0.0 0.0
03:44 17.0 15.2 89 1021.4 3.1 N 3.8 0.0 0.0
03:45 17.0 15.2 89 1021.4 3.1 NE 3.8 0.0 0.0
03:46 17.0 15.2 89 1021.4 2.2 NE 3.8 0.0 0.0
03:47 17.1 15.3 89 1021.5 3.1 N 3.8 0.0 0.0
03:48 17.0 15.2 89 1021.5 3.1 NE 3.8 0.0 0.0
03:49 17.1 15.3 89 1021.5 3.1 N 3.8 0.0 0.0
03:50 17.1 15.3 89 1021.5 2.2 NE 3.8 0.0 0.0
03:51 17.1 15.3 89 1021.4 3.1 NE 3.8 0.0 0.0
03:52 17.1 15.3 89 1021.6 2.2 NE 3.1 0.0 0.0
03:53 17.1 15.3 89 1021.5 2.2 NE 3.1 0.0 0.0
03:54 17.1 15.3 89 1021.5 3.1 NE 3.1 0.0 0.0
03:55 17.1 15.3 89 1021.5 2.2 N 3.1 0.0 0.0
03:56 17.1 15.3 89 1021.5 1.6 N 3.1 0.0 0.0
03:59 17.1 15.5 90 1021.4 2.2 N 3.1 0.0 0.0
04:00 17.0 15.2 89 1021.5 1.6 N 3.1 0.0 0.0
04:01 17.1 15.5 90 1021.6 1.6 NW 3.1 0.0 0.0
04:02 17.1 15.5 90 1021.5 2.2 NE 3.1 0.0 0.0
04:03 17.1 15.5 90 1021.4 3.1 N 3.1 0.0 0.0
04:04 17.1 15.5 90 1021.6 1.6 N 3.1 0.0 0.0
04:05 17.1 15.5 90 1021.3 2.2 NW 3.1 0.0 0.0
04:06 17.1 15.5 90 1021.5 1.6 N 3.1 0.0 0.0
04:07 17.1 15.5 90 1021.4 1.6 N 3.1 0.0 0.0
04:08 17.0 15.4 90 1021.3 2.2 N 3.1 0.0 0.0
04:09 17.1 15.5 90 1021.4 1.6 N 3.1 0.0 0.0
04:10 17.1 15.5 90 1021.3 1.6 N 3.1 0.0 0.0
04:11 17.1 15.5 90 1021.4 1.6 NE 3.1 0.0 0.0
04:12 17.0 15.4 90 1021.5 1.6 N 3.1 0.0 0.0
04:13 17.1 15.5 90 1021.3 2.2 N 3.1 0.0 0.0
04:14 17.0 15.4 90 1021.5 1.6 NW 2.2 0.0 0.0
04:15 17.0 15.4 90 1021.3 1.6 N 2.2 0.0 0.0
04:16 17.0 15.4 90 1021.3 2.2 N 2.2 0.0 0.0
04:18 17.0 15.4 90 1021.4 3.1 N 3.1 0.0 0.0
04:19 17.0 15.4 90 1021.4 2.2 N 3.1 0.0 0.0
04:20 17.0 15.4 90 1021.3 3.1 N 3.1 0.0 0.0
04:21 17.0 15.4 90 1021.5 1.6 N 3.1 0.0 0.0
04:22 17.0 15.4 90 1021.4 2.2 N 3.1 0.0 0.0
04:23 17.0 15.4 90 1021.5 1.6 NW 3.1 0.0 0.0
04:24 17.0 15.4 90 1021.5 2.2 N 3.1 0.0 0.0
04:25 16.9 15.3 90 1021.4 1.6 NE 3.1 0.0 0.0
04:26 16.9 15.3 90 1021.4 2.2 N 3.1 0.0 0.0
04:27 16.9 15.3 90 1021.4 1.6 NW 3.1 0.0 0.0
04:28 16.9 15.3 90 1021.5 3.1 NW 3.1 0.0 0.0
04:29 16.9 15.3 90 1021.3 1.6 N 3.1 0.0 0.0
04:30 16.9 15.3 90 1021.4 0.7 NW 3.1 0.0 0.0
04:31 16.9 15.3 90 1021.3 2.2 N 3.1 0.0 0.0
04:32 16.9 15.3 90 1021.4 2.2 NE 3.1 0.0 0.0
04:33 16.9 15.3 90 1021.1 1.6 N 3.1 0.0 0.0
04:34 16.8 15.2 90 1021.4 1.6 NNE 3.1 0.0 0.0
04:36 16.8 15.2 90 1021.3 1.6 NE 3.1 0.0 0.0
04:37 16.8 15.2 90 1021.5 2.2 N 3.1 0.0 0.0
04:38 16.9 15.3 90 1021.5 2.2 NW 2.2 0.0 0.0
04:39 16.8 15.2 90 1021.6 2.2 N 2.2 0.0 0.0
04:40 16.8 15.2 90 1021.6 2.2 N 2.2 0.0 0.0
04:41 16.8 15.2 90 1021.6 3.1 N 3.1 0.0 0.0
04:42 16.8 15.2 90 1021.6 2.2 NW 3.1 0.0 0.0
04:43 16.8 15.2 90 1021.5 1.6 N 3.1 0.0 0.0
04:44 16.8 15.2 90 1021.6 2.2 NE 3.1 0.0 0.0
04:45 16.8 15.2 90 1021.6 0.7 N 3.1 0.0 0.0
04:46 16.8 15.2 90 1021.4 1.6 NE 3.1 0.0 0.0
04:47 16.8 15.2 90 1021.6 0.7 N 3.1 0.0 0.0
04:48 16.8 15.0 89 1021.5 1.6 NE 3.1 0.0 0.0
04:49 16.7 14.9 89 1021.5 1.6 N 3.1 0.0 0.0
04:51 16.7 14.9 89 1021.6 3.1 NW 3.1 0.0 0.0
04:52 16.7 14.9 89 1021.5 2.2 N 3.1 0.0 0.0
04:53 16.7 14.9 89 1021.4 3.8 NW 3.8 0.0 0.0
04:54 16.7 14.9 89 1021.4 3.8 NW 3.8 0.0 0.0
04:55 16.7 14.9 89 1021.5 3.8 N 3.8 0.0 0.0
04:56 16.7 14.9 89 1021.6 1.6 N 3.8 0.0 0.0
04:57 16.7 14.9 89 1021.5 2.2 NE 3.8 0.0 0.0
04:58 16.7 14.9 89 1021.6 2.2 N 3.8 0.0 0.0
04:59 16.7 14.9 89 1021.4 3.1 NW 4.5 0.0 0.0
05:00 16.7 14.9 89 1021.5 2.2 N 4.5 0.0 0.0
05:01 16.7 14.9 89 1021.4 2.2 N 4.5 0.0 0.0
05:02 16.7 14.9 89 1021.3 3.8 NE 4.5 0.0 0.0
05:03 16.7 14.9 89 1021.5 2.2 SW 4.5 0.0 0.0
05:04 16.7 14.9 89 1021.4 3.1 NW 4.5 0.0 0.0
05:05 16.7 14.9 89 1021.4 1.6 N 4.5 0.0 0.0
05:06 16.7 14.9 89 1021.5 2.2 NW 4.5 0.0 0.0
05:08 16.7 14.9 89 1021.4 2.2 NW 4.5 0.0 0.0
05:09 16.7 14.9 89 1021.4 3.8 N 3.8 0.0 0.0
05:10 16.7 14.9 89 1021.3 2.2 NW 3.8 0.0 0.0
05:11 16.7 14.9 89 1021.5 5.4 NW 5.4 0.0 0.0
05:12 16.7 14.9 89 1021.4 3.1 NE 6.0 0.0 0.0
05:13 16.7 14.9 89 1021.4 3.1 NE 6.0 0.0 0.0
05:14 16.7 14.9 89 1021.5 3.1 N 6.0 0.0 0.0
05:15 16.7 14.9 89 1021.4 1.6 NE 6.0 0.0 0.0
05:16 16.7 14.9 89 1021.4 3.1 N 6.0 0.0 0.0
05:17 16.7 14.9 89 1021.5 3.1 WNW 6.0 0.0 0.0
05:18 16.7 14.9 89 1021.4 1.6 N 6.0 0.0 0.0
05:19 16.7 14.9 89 1021.5 2.2 N 6.0 0.0 0.0
05:20 16.7 14.9 89 1021.4 2.2 NW 6.0 0.0 0.0
05:21 16.7 14.9 89 1021.5 2.2 NW 6.0 0.0 0.0
05:23 16.7 14.9 89 1021.4 2.2 W 3.8 0.0 0.0
05:24 16.7 14.9 89 1021.6 2.2 SW 3.8 0.0 0.0
05:25 16.7 14.9 89 1021.5 2.2 NW 3.8 0.0 0.0
05:26 16.7 14.9 89 1021.5 2.2 NE 3.8 0.0 0.0
05:27 16.6 14.8 89 1021.5 3.1 NE 3.8 0.0 0.0
05:28 16.6 14.8 89 1021.6 4.5 NE 4.5 0.0 0.0
05:29 16.6 14.8 89 1021.6 2.2 NE 4.5 0.0 0.0
05:30 16.6 14.8 89 1021.4 1.6 NW 4.5 0.0 0.0
05:31 16.6 14.8 89 1021.5 3.8 W 4.5 0.0 0.0
05:32 16.6 14.8 89 1021.5 2.2 NE 4.5 0.0 0.0
05:33 16.6 14.8 89 1021.5 3.8 N 4.5 0.0 0.0
05:34 16.6 14.8 89 1021.5 2.2 N 4.5 0.0 0.0
05:35 16.6 14.8 89 1021.5 2.2 NE 4.5 0.0 0.0
05:36 16.6 14.8 89 1021.5 2.2 N 4.5 0.0 0.0
05:38 16.6 14.8 89 1021.5 3.1 W 3.8 0.0 0.0
05:39 16.6 14.8 89 1021.6 3.1 NW 3.8 0.0 0.0
05:40 16.6 14.8 89 1021.6 3.1 NE 3.8 0.0 0.0
05:41 16.5 14.7 89 1021.6 1.6 N 3.8 0.0 0.0
05:42 16.5 14.7 89 1021.6 1.6 N 3.8 0.0 0.0
05:43 16.5 14.7 89 1021.5 3.1 N 3.8 0.0 0.0
05:44 16.5 14.7 89 1021.7 3.1 N 3.8 0.0 0.0
05:45 16.5 14.7 89 1021.6 2.2 WNW 3.8 0.0 0.0
05:46 16.5 14.7 89 1021.5 3.8 NE 3.8 0.0 0.0
05:47 16.5 14.7 89 1021.5 3.8 N 3.8 0.0 0.0
05:48 16.5 14.7 89 1021.6 2.2 NW 4.5 0.0 0.0
05:49 16.5 14.7 89 1021.7 1.6 N 4.5 0.0 0.0
05:50 16.5 14.7 89 1021.7 2.2 N 4.5 0.0 0.0
05:51 16.5 14.7 89 1021.6 2.2 NW 4.5 0.0 0.0
05:53 16.5 14.7 89 1021.5 4.5 N 4.5 0.0 0.0
05:54 16.5 14.7 89 1021.5 3.8 NW 4.5 0.0 0.0
05:55 16.5 14.7 89 1021.6 2.2 NW 4.5 0.0 0.0
05:56 16.5 14.7 89 1021.6 2.2 N 4.5 0.0 0.0
05:57 16.4 14.6 89 1021.8 3.1 SW 4.5 0.0 0.0
05:58 16.5 14.7 89 1021.6 1.6 NW 4.5 0.0 0.0
05:59 16.5 14.7 89 1021.7 2.2 NW 4.5 0.0 0.0
06:00 16.4 14.6 89 1021.6 4.5 NW 4.5 0.0 0.0
06:01 16.4 14.6 89 1021.6 3.1 NW 4.5 0.0 0.0
06:02 16.4 14.6 89 1021.7 3.1 NW 4.5 0.0 0.0
06:03 16.4 14.6 89 1021.8 3.8 NW 4.5 0.0 0.0
06:04 16.4 14.6 89 1021.5 4.5 NE 4.5 0.0 0.0
06:05 16.4 14.6 89 1021.6 2.2 N 4.5 0.0 0.0
06:06 16.4 14.6 89 1021.6 5.4 S 5.4 0.0 0.0
06:08 16.4 14.6 89 1021.7 3.8 NW 5.4 0.0 0.0
06:09 16.4 14.6 89 1021.5 3.1 NE 5.4 0.0 0.0
06:10 16.4 14.6 89 1021.6 4.5 NE 5.4 0.0 0.0
06:11 16.4 14.6 89 1021.6 3.8 N 5.4 0.0 0.0
06:12 16.4 14.6 89 1021.6 2.2 NE 5.4 0.0 0.0
06:13 16.4 14.6 89 1021.6 3.8 N 5.4 0.0 0.0
06:14 16.4 14.6 89 1021.5 3.8 NW 5.4 0.0 0.0
06:15 16.4 14.6 89 1021.7 3.8 N 5.4 0.0 0.0
06:16 16.4 14.6 89 1021.7 4.5 N 5.4 0.0 0.0
06:17 16.4 14.6 89 1021.6 3.1 N 4.5 0.0 0.0
06:18 16.4 14.6 89 1021.7 3.8 ENE 4.5 0.0 0.0
06:19 16.4 14.6 89 1021.6 5.4 NW 5.4 0.0 0.0
06:20 16.4 14.6 89 1021.7 4.5 NE 5.4 0.0 0.0
06:21 16.3 14.5 89 1021.6 3.1 N 5.4 0.0 0.0
06:23 16.3 14.5 89 1021.5 3.1 N 5.4 0.0 0.0
06:24 16.3 14.5 89 1021.7 2.2 NW 5.4 0.0 0.0
06:25 16.3 14.5 89 1021.7 3.1 NW 5.4 0.0 0.0
06:26 16.3 14.5 89 1021.7 3.1 NW 5.4 0.0 0.0
06:27 16.4 14.6 89 1021.8 3.1 NW 5.4 0.0 0.0
06:28 16.3 14.5 89 1021.7 2.2 WSW 5.4 0.0 0.0
06:29 16.3 14.5 89 1021.6 3.1 WNW 5.4 0.0 0.0
06:30 16.3 14.5 89 1021.7 4.5 N 4.5 0.0 0.0
06:31 16.3 14.5 89 1021.7 3.8 N 4.5 0.0 0.0
06:32 16.4 14.6 89 1021.5 3.8 NW 4.5 0.0 0.0
06:33 16.2 14.4 89 1021.7 2.2 NW 4.5 0.0 0.0
06:34 16.2 14.4 89 1021.7 3.8 W 4.5 0.0 0.0
06:35 16.2 14.4 89 1021.7 2.2 N 4.5 0.0 0.0
06:37 16.2 14.4 89 1021.7 2.2 W 4.5 0.0 0.0
06:38 16.4 14.6 89 1021.6 1.6 NW 4.5 0.0 0.0
06:39 16.2 14.4 89 1021.7 2.2 N 4.5 0.0 0.0
06:40 16.2 14.4 89 1021.8 2.2 NE 3.8 0.0 0.0
06:41 16.2 14.4 89 1021.8 6.0 NW 6.0 0.0 0.0
06:42 16.2 14.4 89 1021.8 5.4 W 6.0 0.0 0.0
06:43 16.2 14.4 89 1021.8 3.1 NW 6.0 0.0 0.0
06:44 16.2 14.4 89 1021.9 3.8 NW 6.0 0.0 0.0
06:45 16.2 14.4 89 1021.7 4.5 W 6.0 0.0 0.0
06:46 16.2 14.4 89 1021.8 3.1 N 6.0 0.0 0.0
06:47 16.2 14.4 89 1021.7 3.8 N 6.0 0.0 0.0
06:48 16.2 14.4 89 1021.7 2.2 NE 6.0 0.0 0.0
06:49 16.2 14.4 89 1021.8 4.5 N 6.0 0.0 0.0
06:50 16.2 14.4 89 1021.7 3.8 NE 6.0 0.0 0.0
06:52 16.2 14.6 90 1021.7 3.8 NW 4.5 0.0 0.0
06:53 16.2 14.6 90 1021.7 5.4 NE 6.0 0.0 0.0
06:54 16.2 14.6 90 1021.7 5.4 N 6.0 0.0 0.0
06:55 16.2 14.6 90 1021.7 5.4 N 6.0 0.0 0.0
06:56 16.2 14.6 90 1021.8 3.1 NE 6.0 0.0 0.0
06:57 16.2 14.6 90 1021.7 5.4 N 6.0 0.0 0.0
06:58 16.2 14.6 90 1021.8 3.8 N 6.0 0.0 0.0
06:59 16.2 14.6 90 1021.8 3.1 W 6.0 0.0 0.0
07:00 16.2 14.6 90 1021.8 3.1 W 6.0 0.0 0.0
07:01 16.2 14.6 90 1021.7 3.8 NE 6.0 0.0 0.0
07:02 16.2 14.6 90 1021.7 2.2 E 6.0 0.0 0.0
07:03 16.2 14.6 90 1021.6 6.0 N 6.0 0.0 0.0
07:04 16.2 14.6 90 1021.8 4.5 N 6.0 0.0 0.0
07:05 16.3 14.7 90 1021.8 4.5 N 6.0 0.0 0.0
07:06 16.3 14.7 90 1021.7 3.1 N 6.0 0.0 0.0
07:07 16.3 14.7 90 1021.6 3.8 N 6.0 0.0 0.0
07:08 16.3 14.7 90 1021.8 3.8 SW 6.0 0.0 0.0
07:10 16.3 14.7 90 1021.7 2.2 N 6.0 0.0 0.0
07:11 16.3 14.7 90 1021.8 5.4 NW 6.0 0.0 0.0
07:12 16.3 14.7 90 1021.8 3.1 NW 6.0 0.0 0.0
07:13 16.3 14.7 90 1021.8 3.1 NNE 6.0 0.0 0.0
07:14 16.3 14.7 90 1021.7 2.2 N 5.4 0.0 0.0
07:15 16.3 14.7 90 1021.8 3.8 NW 5.4 0.0 0.0
07:16 16.3 14.7 90 1021.8 5.4 NW 5.4 0.0 0.0
07:17 16.3 14.7 90 1021.7 3.1 N 5.4 0.0 0.0
07:18 16.3 14.7 90 1021.8 3.1 N 5.4 0.0 0.0
07:19 16.3 14.7 90 1021.8 3.1 NW 5.4 0.0 0.0
07:20 16.3 14.7 90 1021.8 3.8 NW 5.4 0.0 0.0
07:21 16.3 14.7 90 1021.8 3.8 N 5.4 0.0 0.0
07:22 16.3 14.7 90 1021.9 3.1 NW 5.4 0.0 0.0
07:24 16.4 14.8 90 1022.0 6.9 N 6.9 0.0 0.0
07:25 16.4 14.8 90 1021.9 3.8 N 6.9 0.0 0.0
07:26 16.4 14.8 90 1021.8 3.8 NW 6.9 0.0 0.0
07:27 16.4 14.8 90 1021.8 3.8 NW 6.9 0.0 0.0
07:28 16.4 14.8 90 1021.9 4.5 N 6.9 0.0 0.0
07:29 16.4 14.8 90 1021.8 3.1 N 6.9 0.0 0.0
07:30 16.4 14.8 90 1021.8 5.4 SW 6.9 0.0 0.0
07:31 16.4 14.8 90 1021.8 4.5 N 6.9 0.0 0.0
07:32 16.4 14.8 90 1021.8 3.8 SW 6.9 0.0 0.0
07:33 16.4 14.8 90 1021.8 4.5 NW 6.9 0.0 0.0
07:34 16.4 14.8 90 1021.9 3.1 N 6.9 0.0 0.0
07:35 16.4 14.8 90 1021.9 2.2 NE 5.4 0.0 0.0
07:36 16.5 14.9 90 1021.9 3.1 N 5.4 0.0 0.0
07:37 16.5 14.9 90 1021.9 4.5 N 5.4 0.0 0.0
07:38 16.5 14.9 90 1022.0 2.2 N 5.4 0.0 0.0
07:40 16.5 14.9 90 1021.8 3.1 N 4.5 0.0 0.0
07:41 16.5 14.9 90 1021.9 3.1 N 4.5 0.0 0.0
07:42 16.5 14.9 90 1021.9 2.2 NW 4.5 0.0 0.0
07:43 16.6 15.0 90 1021.8 3.1 N 4.5 0.0 0.0
07:44 16.6 15.0 90 1021.9 0.7 N 4.5 0.0 0.0
07:45 16.6 15.0 90 1021.9 3.8 NW 4.5 0.0 0.0
07:46 16.6 15.0 90 1022.0 4.5 W 4.5 0.0 0.0
07:47 16.6 15.0 90 1021.8 3.8 NW 5.4 0.0 0.0
07:48 16.6 15.0 90 1022.1 2.2 N 5.4 0.0 0.0
07:49 16.6 15.0 90 1022.0 3.1 N 5.4 0.0 0.0
07:50 16.6 15.0 90 1022.0 4.5 NW 5.4 0.0 0.0
07:51 16.6 15.0 90 1021.9 4.5 N 5.4 0.0 0.0
07:52 16.7 15.1 90 1022.0 3.8 N 5.4 0.0 0.0
07:53 16.7 15.1 90 1021.8 3.1 W 5.4 0.0 0.0
07:55 16.7 14.9 89 1021.8 3.8 NE 5.4 0.0 0.0
07:56 16.7 14.9 89 1022.0 3.8 W 5.4 0.0 0.0
07:57 16.7 14.9 89 1021.9 4.5 SE 6.0 0.0 0.0
07:58 16.7 14.9 89 1021.9 4.5 SE 6.0 0.0 0.0
07:59 16.7 14.9 89 1021.9 3.8 NW 6.0 0.0 0.0
08:00 16.7 14.9 89 1021.8 5.4 N 6.0 0.0 0.0
08:01 16.7 14.9 89 1021.8 5.4 N 6.0 0.0 0.0
08:02 16.8 15.0 89 1021.8 4.5 N 6.0 0.0 0.0
08:03 16.8 14.8 88 1021.8 3.8 N 6.0 0.0 0.0
08:04 16.8 14.8 88 1021.8 4.5 N 6.0 0.0 0.0
08:05 16.8 14.8 88 1021.9 3.8 NW 6.9 0.0 0.0
08:06 16.8 14.8 88 1021.8 3.8 NE 6.9 0.0 0.0
08:07 16.8 14.8 88 1021.9 3.8 N 6.9 0.0 0.0
08:08 16.8 14.8 88 1021.8 4.5 NW 6.9 0.0 0.0
08:10 16.8 14.6 87 1021.9 1.6 NE 6.9 0.0 0.0
08:11 16.9 14.7 87 1021.8 4.5 E 6.9 0.0 0.0
08:12 16.9 14.7 87 1021.9 3.8 N 6.9 0.0 0.0
08:13 16.9 14.7 87 1021.8 9.2 N 9.2 0.0 0.0
08:14 16.9 14.7 87 1021.8 5.4 NNE 9.2 0.0 0.0
08:15 16.9 14.7 87 1021.9 5.4 W 9.2 0.0 0.0
08:16 17.0 14.8 87 1021.9 3.1 NW 9.2 0.0 0.0
08:17 17.0 14.8 87 1021.8 3.8 N 9.2 0.0 0.0
08:18 17.0 14.8 87 1021.8 3.8 N 9.2 0.0 0.0
08:19 17.1 14.7 86 1021.8 6.9 N 9.2 0.0 0.0
08:20 17.1 14.7 86 1021.8 9.2 E 9.2 0.0 0.0
08:21 17.1 14.7 86 1021.8 5.4 N 9.2 0.0 0.0
08:22 17.1 14.7 86 1021.8 6.0 NW 9.2 0.0 0.0
08:23 17.1 14.7 86 1022.0 4.5 NE 9.2 0.0 0.0
08:25 17.2 14.7 85 1021.8 4.5 N 9.2 0.0 0.0
08:26 17.2 14.7 85 1021.8 3.1 W 9.2 0.0 0.0
08:27 17.2 14.7 85 1021.8 8.3 NW 9.2 0.0 0.0
08:28 17.3 14.8 85 1021.8 8.3 NW 9.2 0.0 0.0
08:29 17.3 14.8 85 1022.0 6.0 S 9.2 0.0 0.0
08:30 17.3 14.8 85 1021.8 8.3 W 9.2 0.0 0.0
08:31 17.3 14.8 85 1021.9 8.3 NW 8.3 0.0 0.0
08:32 17.4 14.9 85 1021.9 6.0 NW 8.3 0.0 0.0
08:33 17.4 14.9 85 1021.9 6.9 SW 8.3 0.0 0.0
08:34 17.4 14.9 85 1022.0 6.0 NW 8.3 0.0 0.0
08:35 17.4 14.7 84 1022.1 7.6 NW 8.3 0.0 0.0
08:36 17.5 14.8 84 1022.1 6.0 WSW 8.3 0.0 0.0
08:37 17.5 14.8 84 1022.1 5.4 NW 8.3 0.0 0.0
08:39 17.5 14.8 84 1022.0 5.4 E 8.3 0.0 0.0
08:40 17.5 14.8 84 1021.9 3.8 SE 8.3 0.0 0.0
08:41 17.6 14.9 84 1021.9 5.4 N 7.6 0.0 0.0
08:42 17.6 14.9 84 1021.9 5.4 N 7.6 0.0 0.0
08:43 17.6 14.9 84 1022.2 7.6 NW 7.6 0.0 0.0
08:44 17.6 14.9 84 1022.1 5.4 NW 7.6 0.0 0.0
08:45 17.6 14.9 84 1022.0 5.4 E 7.6 0.0 0.0
08:46 17.6 14.9 84 1022.0 6.9 NW 7.6 0.0 0.0
08:47 17.7 15.0 84 1022.0 6.0 NW 7.6 0.0 0.0
08:48 17.7 15.0 84 1022.2 6.0 NW 7.6 0.0 0.0
08:49 17.7 15.0 84 1021.9 3.8 NW 7.6 0.0 0.0
08:50 17.7 14.8 83 1021.9 4.5 WNW 7.6 0.0 0.0
08:51 17.8 14.9 83 1021.9 6.9 NE 7.6 0.0 0.0
08:52 17.8 14.9 83 1022.0 6.0 N 7.6 0.0 0.0
08:54 17.8 14.9 83 1022.0 4.5 W 7.6 0.0 0.0
08:55 17.9 15.0 83 1021.9 5.4 NW 7.6 0.0 0.0
08:56 17.9 15.0 83 1022.0 6.9 NW 7.6 0.0 0.0
08:57 17.9 15.0 83 1022.1 4.5 E 7.6 0.0 0.0
08:58 17.9 15.0 83 1022.1 4.5 E 7.6 0.0 0.0
08:59 18.0 15.1 83 1021.9 5.4 W 7.6 0.0 0.0
09:00 18.0 15.1 83 1022.0 5.4 E 7.6 0.0 0.0
09:01 18.0 15.1 83 1021.9 5.4 E 7.6 0.0 0.0
09:02 18.1 15.2 83 1022.0 8.3 NW 8.3 0.0 0.0
09:03 18.1 15.2 83 1021.8 5.4 N 9.2 0.0 0.0
09:04 18.1 15.0 82 1021.9 7.6 NW 9.2 0.0 0.0
09:05 18.2 15.1 82 1022.0 6.0 N 9.2 0.0 0.0
09:06 18.2 15.1 82 1022.0 4.5 NW 9.2 0.0 0.0
09:07 18.2 15.1 82 1021.9 8.3 NW 9.2 0.0 0.0
09:08 18.3 15.2 82 1022.0 5.4 NE 9.2 0.0 0.0
09:09 18.3 15.2 82 1022.0 6.0 NW 9.2 0.0 0.0
09:10 18.3 15.2 82 1022.1 7.6 E 9.2 0.0 0.0
09:11 18.4 15.3 82 1022.0 8.3 NNE 9.2 0.0 0.0
09:13 18.5 15.2 81 1022.0 4.5 NE 8.3 0.0 0.0
09:14 18.5 15.2 81 1022.2 4.5 N 8.3 0.0 0.0
09:15 18.5 15.2 81 1022.2 4.5 N 8.3 0.0 0.0
09:16 18.6 15.3 81 1021.9 6.9 NE 8.3 0.0 0.0
09:17 18.6 15.3 81 1022.0 9.2 NW 9.2 0.0 0.0
09:18 18.7 15.4 81 1022.0 5.4 E 9.2 0.0 0.0
09:19 18.7 15.4 81 1022.1 6.0 NE 9.2 0.0 0.0
09:20 18.8 15.5 81 1022.0 6.9 NE 9.2 0.0 0.0
09:21 18.8 15.5 81 1022.1 6.0 NE 9.2 0.0 0.0
09:22 18.9 15.4 80 1021.9 6.9 NE 9.2 0.0 0.0
09:23 18.9 15.4 80 1022.1 9.2 SE 9.2 0.0 0.0
09:24 19.1 15.6 80 1022.0 4.5 NE 9.2 0.0 0.0
09:25 19.1 15.4 79 1022.1 6.9 N 9.2 0.0 0.0
09:26 19.1 15.4 79 1022.0 6.9 SW 9.2 0.0 0.0
09:27 19.1 15.4 79 1021.9 9.8 N 9.8 0.0 0.0
09:29 19.2 15.5 79 1022.0 5.4 W 9.8 0.0 0.0
09:30 19.3 15.4 78 1022.1 6.9 N 9.8 0.0 0.0
09:31 19.3 15.4 78 1022.1 8.3 E 9.8 0.0 0.0
09:32 19.3 15.4 78 1021.9 9.8 NNE 9.8 0.0 0.0
09:33 19.3 15.4 78 1021.9 8.3 NW 9.8 0.0 0.0
09:34 19.3 15.4 78 1022.0 5.4 NW 9.8 0.0 0.0
09:35 19.3 15.2 77 1022.2 6.9 SE 9.8 0.0 0.0
09:36 19.4 15.3 77 1022.0 6.9 SW 9.8 0.0 0.0
09:37 19.4 15.3 77 1022.1 6.0 NW 9.8 0.0 0.0
09:38 19.4 15.3 77 1022.0 6.9 WNW 9.8 0.0 0.0
09:39 19.5 15.4 77 1022.0 6.9 NW 9.8 0.0 0.0
09:40 19.5 15.2 76 1022.1 6.0 N 9.8 0.0 0.0
09:41 19.5 15.2 76 1022.1 5.4 WNW 9.8 0.0 0.0
09:42 19.6 15.3 76 1021.9 10.7 NW 10.7 0.0 0.0
09:43 19.6 15.3 76 1021.9 9.2 NW 10.7 0.0 0.0
09:44 19.6 15.3 76 1022.1 6.0 N 10.7 0.0 0.0
09:46 19.7 15.4 76 1021.9 9.2 E 10.7 0.0 0.0
09:47 19.7 15.4 76 1022.1 6.0 WNW 10.7 0.0 0.0
09:48 19.8 15.3 75 1022.0 5.4 N 10.7 0.0 0.0
09:49 19.8 15.3 75 1022.0 7.6 NW 10.7 0.0 0.0
09:50 19.8 15.3 75 1022.0 7.6 NW 10.7 0.0 0.0
09:51 19.9 15.4 75 1022.1 4.5 NE 10.7 0.0 0.0
09:52 19.9 15.4 75 1022.1 6.0 NE 10.7 0.0 0.0
09:53 19.9 15.4 75 1022.0 6.0 E 9.2 0.0 0.0
09:54 19.9 15.4 75 1022.1 8.3 N 9.2 0.0 0.0
09:55 20.0 15.2 74 1022.0 8.3 N 9.2 0.0 0.0
09:56 20.0 15.2 74 1022.0 4.5 NW 9.2 0.0 0.0
09:57 20.0 15.2 74 1022.1 6.0 SW 8.3 0.0 0.0
09:58 20.1 15.3 74 1021.9 6.9 NW 8.3 0.0 0.0
09:59 20.1 15.3 74 1022.0 6.9 NW 8.3 0.0 0.0
10:00 20.1 15.3 74 1022.0 8.3 NW 8.3 0.0 0.0
10:01 20.2 15.2 73 1022.0 6.0 NW 8.3 0.0 0.0
10:02 20.1 15.1 73 1022.1 3.1 SE 8.3 0.0 0.0
10:04 20.2 15.2 73 1022.0 7.6 NW 8.3 0.0 0.0
10:05 20.2 15.2 73 1022.0 5.4 NE 8.3 0.0 0.0
10:06 20.2 15.2 73 1022.0 5.4 NE 8.3 0.0 0.0
10:07 20.4 15.2 72 1022.0 5.4 NW 8.3 0.0 0.0
10:08 20.3 14.9 71 1022.0 5.4 N 8.3 0.0 0.0
10:09 20.3 14.9 71 1022.1 5.4 S 8.3 0.0 0.0
10:10 20.3 14.9 71 1021.9 6.0 NW 8.3 0.0 0.0
10:11 20.3 14.9 71 1022.1 5.4 N 7.6 0.0 0.0
10:12 20.3 14.9 71 1022.0 4.5 WSW 7.6 0.0 0.0
10:13 20.4 15.0 71 1022.1 4.5 NW 7.6 0.0 0.0
10:14 20.4 14.8 70 1021.9 9.8 NW 9.8 0.0 0.0
10:15 20.4 14.8 70 1022.1 9.8 N 9.8 0.0 0.0
10:16 20.4 14.5 69 1022.1 12.1 W 12.1 0.0 0.0
10:17 20.4 14.5 69 1021.9 9.2 WNW 12.1 0.0 0.0
10:18 20.4 14.5 69 1022.1 9.2 NW 12.1 0.0 0.0
10:20 20.4 14.5 69 1022.1 9.8 NW 12.1 0.0 0.0
10:21 20.4 14.3 68 1022.1 9.8 NE 12.1 0.0 0.0
10:22 20.4 14.3 68 1022.1 9.8 NE 12.1 0.0 0.0
10:23 20.3 14.2 68 1022.2 9.2 NE 12.1 0.0 0.0
10:24 20.4 14.3 68 1022.1 7.6 N 12.1 0.0 0.0
10:25 20.4 14.3 68 1022.1 12.1 N 12.1 0.0 0.0
10:26 20.4 14.3 68 1022.1 12.1 N 12.1 0.0 0.0
10:27 20.3 14.2 68 1022.0 6.9 W 12.1 0.0 0.0
10:28 20.3 14.2 68 1022.3 8.3 NE 12.1 0.0 0.0
10:29 20.3 14.2 68 1022.2 9.2 N 12.1 0.0 0.0
10:30 20.4 14.3 68 1022.1 8.3 N 12.1 0.0 0.0
10:31 20.4 14.3 68 1022.1 6.9 NW 12.1 0.0 0.0
10:32 20.4 14.3 68 1022.1 6.9 N 12.1 0.0 0.0
10:33 20.4 14.3 68 1022.1 8.3 N 12.1 0.0 0.0
10:34 20.4 14.3 68 1022.3 7.6 SSE 12.1 0.0 0.0
10:36 20.5 14.2 67 1022.3 6.0 NE 9.8 0.0 0.0
10:37 20.5 14.2 67 1022.2 6.0 W 9.8 0.0 0.0
10:38 20.5 14.2 67 1022.3 7.6 N 9.8 0.0 0.0
10:39 20.5 14.2 67 1022.3 6.0 SW 9.8 0.0 0.0
10:40 20.6 14.3 67 1022.1 5.4 NW 9.8 0.0 0.0
10:41 20.6 14.5 68 1022.4 6.0 NW 9.8 0.0 0.0
10:42 20.7 14.6 68 1022.3 6.0 N 9.8 0.0 0.0
10:43 20.7 14.4 67 1022.3 8.3 NW 9.8 0.0 0.0
10:44 20.7 14.4 67 1022.2 9.2 N 9.8 0.0 0.0
10:45 20.7 14.4 67 1022.2 10.7 NW 10.7 0.0 0.0
10:46 20.7 14.1 66 1022.4 6.0 WNW 10.7 0.0 0.0
10:47 20.7 14.4 67 1022.3 11.4 W 11.4 0.0 0.0
10:48 20.8 14.5 67 1022.1 6.0 NW 11.4 0.0 0.0
10:49 20.8 14.5 67 1022.4 7.6 NW 11.4 0.0 0.0
10:50 20.8 14.2 66 1022.2 9.8 NNW 11.4 0.0 0.0
10:51 20.8 14.5 67 1022.3 6.0 NW 11.4 0.0 0.0
10:52 20.9 14.3 66 1022.3 9.2 WNW 11.4 0.0 0.0
10:54 20.9 14.3 66 1022.2 13.6 NE 13.6 0.0 0.0
10:55 20.9 14.3 66 1022.3 9.2 NW 13.6 0.0 0.0
10:56 20.9 14.3 66 1022.3 8.3 SW 13.6 0.0 0.0
10:57 21.0 14.2 65 1022.4 6.0 NW 13.6 0.0 0.0
10:58 21.0 14.4 66 1022.4 6.0 NE 13.6 0.0 0.0
10:59 21.0 14.4 66 1022.2 6.9 NW 13.6 0.0 0.0
11:00 21.0 14.2 65 1022.3 8.3 WNW 13.6 0.0 0.0
11:01 21.0 14.2 65 1022.3 8.3 WNW 13.6 0.0 0.0
11:02 21.1 14.3 65 1022.4 7.6 NW 13.6 0.0 0.0
11:03 21.1 14.3 65 1022.2 8.3 NW 13.6 0.0 0.0
11:04 21.1 14.3 65 1022.3 8.3 SSE 13.6 0.0 0.0
11:05 21.1 14.3 65 1022.3 8.3 NW 9.2 0.0 0.0
11:06 21.1 14.3 65 1022.4 9.2 NW 9.2 0.0 0.0
11:07 21.2 14.1 64 1022.4 8.3 E 9.2 0.0 0.0
11:08 21.2 14.4 65 1022.4 4.5 N 9.2 0.0 0.0
11:09 21.2 14.4 65 1022.4 5.4 SSW 9.2 0.0 0.0
11:10 21.3 14.5 65 1022.4 6.9 NW 9.2 0.0 0.0
11:11 21.4 14.6 65 1022.5 12.1 NW 12.1 0.0 0.0
11:12 21.4 14.3 64 1022.3 8.3 NE 12.1 0.0 0.0
11:13 21.4 14.3 64 1022.4 4.5 NE 12.1 0.0 0.0
11:14 21.4 14.6 65 1022.4 6.9 E 12.1 0.0 0.0
11:16 21.5 14.4 64 1022.5 8.3 NW 12.1 0.0 0.0
11:17 21.5 14.4 64 1022.5 5.4 N 12.1 0.0 0.0
11:18 21.5 14.4 64 1022.4 4.5 NE 12.1 0.0 0.0
11:19 21.6 14.5 64 1022.5 7.6 N 12.1 0.0 0.0
11:20 21.6 14.5 64 1022.6 7.6 NW 12.1 0.0 0.0
11:21 21.6 14.5 64 1022.5 6.0 N 12.1 0.0 0.0
11:22 21.6 14.5 64 1022.5 6.0 NW 9.8 0.0 0.0
11:23 21.7 14.8 65 1022.6 4.5 W 9.8 0.0 0.0
11:24 21.7 14.6 64 1022.6 8.3 NW 9.8 0.0 0.0
11:25 21.8 14.7 64 1022.4 9.8 NE 9.8 0.0 0.0
11:26 21.8 14.5 63 1022.4 5.4 NW 11.4 0.0 0.0
11:27 21.8 14.5 63 1022.5 7.6 NW 11.4 0.0 0.0
11:28 21.8 14.5 63 1022.5 8.3 N 11.4 0.0 0.0
11:29 21.9 14.8 64 1022.5 6.0 W 11.4 0.0 0.0
11:30 21.9 14.8 64 1022.5 6.0 NW 11.4 0.0 0.0
11:33 22.1 14.7 63 1022.3 13.0 NW 13.0 0.0 0.0
11:34 22.0 14.6 63 1022.5 6.9 NE 13.0 0.0 0.0
11:35 22.0 14.6 63 1022.4 9.8 N 13.0 0.0 0.0
11:36 22.0 14.4 62 1022.6 9.8 NW 13.0 0.0 0.0
11:37 21.9 14.6 63 1022.4 9.2 W 13.0 0.0 0.0
11:38 21.9 14.6 63 1022.5 11.4 N 13.0 0.0 0.0
11:39 21.9 14.6 63 1022.5 8.3 NW 13.0 0.0 0.0
11:40 22.0 14.6 63 1022.5 7.6 NW 13.0 0.0 0.0
11:41 22.0 14.6 63 1022.6 9.8 NW 13.0 0.0 0.0
11:42 22.1 14.7 63 1022.6 9.8 NW 13.0 0.0 0.0
11:43 22.1 14.7 63 1022.6 9.8 NW 13.0 0.0 0.0
11:44 22.1 14.7 63 1022.4 9.2 N 12.1 0.0 0.0
11:45 22.0 14.6 63 1022.4 6.0 E 12.1 0.0 0.0
11:46 22.1 14.5 62 1022.6 9.2 N 12.1 0.0 0.0
11:47 22.1 14.5 62 1022.6 11.4 E 12.1 0.0 0.0
11:48 22.1 14.5 62 1022.4 9.8 NW 12.1 0.0 0.0
11:50 22.1 14.5 62 1022.6 5.4 WSW 11.4 0.0 0.0
11:51 22.1 14.5 62 1022.7 12.1 E 12.1 0.0 0.0
11:52 22.0 14.4 62 1022.5 10.7 N 12.1 0.0 0.0
11:53 22.0 14.4 62 1022.5 8.3 NE 12.1 0.0 0.0
11:54 22.0 14.4 62 1022.6 6.9 N 12.1 0.0 0.0
11:55 22.0 14.4 62 1022.6 9.2 NW 12.1 0.0 0.0
11:56 22.0 14.4 62 1022.7 9.2 W 12.1 0.0 0.0
11:57 22.0 14.4 62 1022.4 9.2 W 12.1 0.0 0.0
11:58 22.0 14.4 62 1022.6 6.9 N 12.1 0.0 0.0
11:59 22.0 14.4 62 1022.6 9.8 NE 12.1 0.0 0.0
12:00 22.0 14.4 62 1022.6 9.8 NE 12.1 0.0 0.0
12:01 22.0 14.6 63 1022.6 6.9 SW 12.1 0.0 0.0
12:02 22.1 14.7 63 1022.5 4.5 N 12.1 0.0 0.0
12:03 22.1 14.7 63 1022.6 6.9 E 12.1 0.0 0.0
12:04 22.2 14.8 63 1022.7 6.9 W 12.1 0.0 0.0
12:05 22.2 14.6 62 1022.7 6.9 N 10.7 0.0 0.0
12:07 22.3 14.7 62 1022.6 9.2 N 10.7 0.0 0.0
12:08 22.3 14.7 62 1022.7 11.4 N 11.4 0.0 0.0
12:09 22.3 14.9 63 1022.7 9.8 N 11.4 0.0 0.0
12:10 22.4 15.0 63 1022.7 6.0 S 11.4 0.0 0.0
12:11 22.4 15.0 63 1022.6 6.0 NE 11.4 0.0 0.0
12:12 22.4 15.0 63 1022.7 6.9 SE 11.4 0.0 0.0
12:13 22.6 15.2 63 1022.7 6.9 NW 11.4 0.0 0.0
12:14 22.6 15.0 62 1022.7 9.8 N 11.4 0.0 0.0
12:15 22.6 15.0 62 1022.6 8.3 NW 11.4 0.0 0.0
12:16 22.6 15.0 62 1022.7 9.2 NE 11.4 0.0 0.0
12:17 22.6 15.0 62 1022.6 8.3 NW 11.4 0.0 0.0
12:18 22.6 15.2 63 1022.7 7.6 N 9.8 0.0 0.0
12:19 22.6 15.2 63 1022.7 6.9 NW 9.8 0.0 0.0
12:20 22.6 15.0 62 1022.7 10.7 WNW 10.7 0.0 0.0
12:21 22.7 15.3 63 1022.6 6.0 NW 10.7 0.0 0.0
12:22 22.7 15.3 63 1022.7 6.9 N 10.7 0.0 0.0
12:23 22.7 14.8 61 1022.5 9.2 SE 10.7 0.0 0.0
12:25 22.7 15.1 62 1022.5 6.0 NW 10.7 0.0 0.0
12:26 22.7 15.1 62 1022.5 7.6 N 10.7 0.0 0.0
12:27 22.7 15.1 62 1022.8 6.0 N 10.7 0.0 0.0
12:28 22.7 15.1 62 1022.7 8.3 N 10.7 0.0 0.0
12:29 22.7 15.1 62 1022.7 6.9 N 10.7 0.0 0.0
12:30 22.7 15.1 62 1022.5 9.2 NW 9.8 0.0 0.0
12:31 22.5 14.9 62 1022.7 9.2 N 9.8 0.0 0.0
12:32 22.7 15.1 62 1022.6 9.2 NW 9.8 0.0 0.0
12:33 22.7 15.1 62 1022.7 10.7 E 10.7 0.0 0.0
12:34 22.7 15.1 62 1022.7 6.0 NW 10.7 0.0 0.0
12:35 22.7 15.1 62 1022.7 6.0 W 10.7 0.0 0.0
12:36 22.7 15.1 62 1022.7 11.4 NW 11.4 0.0 0.0
12:37 22.7 15.3 63 1022.6 9.2 NW 11.4 0.0 0.0
12:38 22.8 15.2 62 1022.5 10.7 NNE 11.4 0.0 0.0
12:39 22.7 15.1 62 1022.7 10.7 N 11.4 0.0 0.0
12:41 22.7 15.3 63 1022.6 6.0 WNW 12.1 0.0 0.0
12:42 22.7 14.8 61 1022.5 11.4 NW 12.1 0.0 0.0
12:43 22.7 14.8 61 1022.6 7.6 SW 12.1 0.0 0.0
12:44 22.7 14.8 61 1022.5 9.2 N 12.1 0.0 0.0
12:45 22.6 15.0 62 1022.4 6.9 E 12.1 0.0 0.0
12:46 22.6 15.0 62 1022.3 10.7 NW 12.1 0.0 0.0
12:47 22.5 14.9 62 1022.7 10.7 N 12.1 0.0 0.0
12:48 22.5 15.1 63 1022.3 11.4 NW 12.1 0.0 0.0
12:49 22.5 15.1 63 1022.3 12.1 N 12.1 0.0 0.0
12:50 22.5 15.4 64 1022.3 9.2 W 12.1 0.0 0.0
12:51 22.5 15.4 64 1022.3 6.9 W 12.1 0.0 0.0
12:52 22.5 15.4 64 1022.3 9.8 NW 12.1 0.0 0.0
12:53 22.5 15.1 63 1022.5 8.3 NW 12.1 0.0 0.0
12:54 22.5 15.1 63 1022.5 7.6 WSW 12.1 0.0 0.0
12:55 22.6 15.2 63 1022.4 5.4 WNW 12.1 0.0 0.0
12:56 22.6 15.2 63 1022.4 8.3 ENE 12.1 0.0 0.0
12:58 22.7 15.3 63 1022.4 8.3 N 12.1 0.0 0.0
12:59 22.7 15.3 63 1022.4 8.3 SW 12.1 0.0 0.0
13:00 22.7 15.6 64 1022.6 8.3 NE 10.7 0.0 0.0
13:01 22.7 15.6 64 1022.3 8.3 NE 10.7 0.0 0.0
13:02 22.7 15.1 62 1022.3 10.7 NW 10.7 0.0 0.0
13:03 22.7 15.1 62 1022.3 9.8 NW 10.7 0.0 0.0
13:04 22.7 15.3 63 1022.4 5.4 NW 10.7 0.0 0.0
13:05 22.7 15.3 63 1022.3 8.3 N 10.7 0.0 0.0
13:06 22.8 15.2 62 1022.3 13.0 NW 13.0 0.0 0.0
13:07 22.8 15.2 62 1022.4 11.4 NE 13.0 0.0 0.0
13:08 22.8 15.4 63 1022.4 13.0 N 13.0 0.0 0.0
13:09 22.8 15.4 63 1022.5 10.7 W 13.0 0.0 0.0
13:10 22.8 15.4 63 1022.4 7.6 SW 13.0 0.0 0.0
13:11 22.8 15.4 63 1022.4 7.6 SW 13.0 0.0 0.0
13:12 22.8 15.4 63 1022.3 6.9 NW 13.0 0.0 0.0
13:13 22.9 15.3 62 1022.4 11.4 NNW 13.0 0.0 0.0
13:14 22.9 15.3 62 1022.3 13.0 NE 13.0 0.0 0.0
13:15 22.8 14.9 61 1022.4 12.1 SW 13.0 0.0 0.0
13:16 22.8 14.9 61 1022.4 10.7 N 13.0 0.0 0.0
13:17 22.7 15.1 62 1022.4 4.5 NW 13.0 0.0 0.0
13:19 22.8 15.2 62 1022.3 5.4 NW 13.0 0.0 0.0
13:20 22.8 14.9 61 1022.4 7.6 E 13.0 0.0 0.0
13:21 22.9 15.3 62 1022.5 10.7 NW 13.0 0.0 0.0
13:22 22.9 15.3 62 1022.3 9.8 E 13.0 0.0 0.0
13:23 22.9 15.5 63 1022.3 13.0 N 13.0 0.0 0.0
13:24 22.9 15.3 62 1022.7 11.4 WNW 13.0 0.0 0.0
13:25 22.9 15.0 61 1022.6 12.1 N 13.0 0.0 0.0
13:26 22.8 15.2 62 1022.4 11.4 NW 13.0 0.0 0.0
13:27 22.8 15.2 62 1022.4 6.0 W 13.0 0.0 0.0
13:28 22.8 15.2 62 1022.5 11.4 NW 13.0 0.0 0.0
13:29 22.7 15.3 63 1022.4 6.9 NW 13.0 0.0 0.0
13:30 22.8 15.7 64 1022.5 6.0 SE 13.0 0.0 0.0
13:31 22.8 15.4 63 1022.5 6.0 N 13.0 0.0 0.0
13:32 22.9 15.7 64 1022.5 4.5 N 13.0 0.0 0.0
13:33 23.0 15.6 63 1022.4 6.9 N 13.0 0.0 0.0
13:34 23.0 15.6 63 1022.5 10.7 NW 12.1 0.0 0.0
13:35 23.1 15.4 62 1022.5 9.8 NW 12.1 0.0 0.0
13:37 23.0 15.3 62 1022.5 8.3 N 11.4 0.0 0.0
13:38 23.0 15.3 62 1022.6 3.8 N 11.4 0.0 0.0
13:39 23.1 15.7 63 1022.5 4.5 NW 10.7 0.0 0.0
13:40 23.1 15.7 63 1022.6 5.4 NNW 10.7 0.0 0.0
13:41 23.1 15.7 63 1022.4 10.7 NW 10.7 0.0 0.0
13:42 23.1 15.4 62 1022.5 9.2 SW 10.7 0.0 0.0
13:43 23.1 15.4 62 1022.5 6.9 N 10.7 0.0 0.0
13:44 23.1 15.4 62 1022.5 7.6 N 10.7 0.0 0.0
13:45 23.0 15.3 62 1022.4 8.3 NW 10.7 0.0 0.0
13:46 23.0 15.3 62 1022.5 9.2 NE 10.7 0.0 0.0
13:47 23.0 15.3 62 1022.6 8.3 NW 10.7 0.0 0.0
13:48 23.0 15.3 62 1022.5 7.6 WNW 10.7 0.0 0.0
13:49 23.0 15.1 61 1022.5 9.8 NW 10.7 0.0 0.0
13:50 22.9 15.3 62 1022.5 8.3 N 10.7 0.0 0.0
13:51 23.0 15.3 62 1022.4 9.8 SSW 10.7 0.0 0.0
13:52 23.0 15.6 63 1022.4 6.9 NW 9.8 0.0 0.0
13:53 23.0 15.3 62 1022.6 4.5 NW 9.8 0.0 0.0
13:54 23.0 15.3 62 1022.5 14.5 WNW 14.5 0.0 0.0
13:55 22.9 15.3 62 1022.4 9.2 NW 14.5 0.0 0.0
13:56 22.9 15.5 63 1022.6 9.8 SW 14.5 0.0 0.0
13:57 23.0 15.3 62 1022.4 9.8 S 14.5 0.0 0.0
13:59 23.0 15.3 62 1022.5 8.3 N 14.5 0.0 0.0
14:00 22.9 15.3 62 1022.5 9.2 N 14.5 0.0 0.0
14:01 22.9 15.3 62 1022.3 9.2 N 14.5 0.0 0.0
14:02 23.0 15.3 62 1022.3 10.7 N 14.5 0.0 0.0
14:03 23.0 15.3 62 1022.4 5.4 N 14.5 0.0 0.0
14:04 23.0 15.6 63 1022.5 10.7 N 11.4 0.0 0.0
14:05 23.1 15.4 62 1022.5 10.7 NW 11.4 0.0 0.0
14:06 23.0 15.1 61 1022.5 10.7 NW 11.4 0.0 0.0
14:07 23.0 15.1 61 1022.4 9.8 NW 11.4 0.0 0.0
14:08 23.0 15.1 61 1022.4 11.4 NW 11.4 0.0 0.0
14:09 23.0 15.1 61 1022.6 11.4 NW 11.4 0.0 0.0
14:10 23.0 15.1 61 1022.5 8.3 NW 11.4 0.0 0.0
14:11 23.0 15.3 62 1022.5 6.0 W 11.4 0.0 0.0
14:12 23.1 15.7 63 1022.5 9.8 NW 11.4 0.0 0.0
14:13 23.2 15.5 62 1022.5 11.4 WNW 11.4 0.0 0.0
14:14 23.3 15.6 62 1022.5 5.4 NW 11.4 0.0 0.0
14:15 23.3 15.6 62 1022.3 4.5 NW 11.4 0.0 0.0
14:17 23.4 15.5 61 1022.3 13.6 N 13.6 0.0 0.0
14:18 23.4 15.2 60 1022.3 11.4 N 15.2 0.0 0.0
14:19 23.3 15.4 61 1022.3 6.0 N 15.2 0.0 0.0
14:20 23.3 15.1 60 1022.3 7.6 NW 15.2 0.0 0.0
14:21 23.3 14.9 59 1022.3 11.4 W 15.2 0.0 0.0
14:22 23.1 15.2 61 1022.3 9.8 N 15.2 0.0 0.0
14:23 23.1 15.2 61 1022.3 7.6 NW 15.2 0.0 0.0
14:24 23.1 15.2 61 1022.3 9.2 NE 15.2 0.0 0.0
14:25 23.0 15.1 61 1022.2 10.7 N 15.2 0.0 0.0
14:26 23.0 15.1 61 1022.3 8.3 NW 15.2 0.0 0.0
14:27 22.9 15.3 62 1022.3 10.7 NW 15.2 0.0 0.0
14:28 22.9 15.3 62 1022.3 10.7 NW 15.2 0.0 0.0
14:29 23.1 15.7 63 1022.3 6.0 NW 11.4 0.0 0.0
14:30 22.9 15.3 62 1022.2 13.6 N 13.6 0.0 0.0
14:31 23.0 15.3 62 1022.4 9.2 N 13.6 0.0 0.0
14:32 23.0 15.3 62 1022.4 9.8 NW 13.6 0.0 0.0
14:33 22.9 15.0 61 1022.4 9.2 WNW 13.6 0.0 0.0
14:34 22.9 15.3 62 1022.4 9.8 N 13.6 0.0 0.0
14:35 22.9 15.3 62 1022.3 6.0 NE 13.6 0.0 0.0
14:36 22.9 15.0 61 1022.4 7.6 NW 13.6 0.0 0.0
14:37 22.9 15.3 62 1022.5 9.2 NW 13.6 0.0 0.0
14:38 22.9 15.0 61 1022.3 12.1 NW 13.6 0.0 0.0
14:39 22.8 15.2 62 1022.4 7.6 W 13.6 0.0 0.0
14:40 22.9 15.5 63 1022.5 9.2 NW 12.1 0.0 0.0
14:41 22.9 15.3 62 1022.4 6.9 NW 12.1 0.0 0.0
14:42 23.0 15.1 61 1022.4 8.3 NW 12.1 0.0 0.0
14:43 23.0 15.1 61 1022.3 7.6 NW 12.1 0.0 0.0
14:44 23.0 15.1 61 1022.4 7.6 N 12.1 0.0 0.0
14:45 23.0 15.1 61 1022.4 13.0 WNW 13.0 0.0 0.0
14:46 23.0 15.1 61 1022.4 10.7 SW 13.0 0.0 0.0
14:47 23.0 15.1 61 1022.5 8.3 W 13.0 0.0 0.0
14:48 23.0 15.1 61 1022.5 8.3 W 13.0 0.0 0.0
14:49 23.0 15.3 62 1022.3 11.4 NW 13.0 0.0 0.0
14:50 23.0 15.1 61 1022.6 12.1 WNW 13.0 0.0 0.0
14:51 23.0 15.1 61 1022.4 11.4 NW 13.0 0.0 0.0
14:52 22.9 15.0 61 1022.5 12.1 NW 13.0 0.0 0.0
14:53 23.0 15.1 61 1022.3 11.4 N 13.0 0.0 0.0
14:54 23.0 15.3 62 1022.5 4.5 NW 13.0 0.0 0.0
14:55 23.1 15.4 62 1022.5 6.9 NW 13.0 0.0 0.0
14:56 23.1 15.4 62 1022.4 10.7 NW 13.0 0.0 0.0
14:57 23.2 15.3 61 1022.4 11.4 SE 12.1 0.0 0.0
14:58 23.2 15.3 61 1022.5 9.2 N 12.1 0.0 0.0
14:59 23.2 15.3 61 1022.4 9.8 N 12.1 0.0 0.0
15:00 23.1 15.4 62 1022.5 8.3 NW 12.1 0.0 0.0
15:01 23.1 15.4 62 1022.4 8.3 NW 12.1 0.0 0.0
15:02 23.1 15.2 61 1022.4 11.4 SW 11.4 0.0 0.0
15:03 23.1 15.2 61 1022.4 11.4 N 11.4 0.0 0.0
15:04 23.1 15.2 61 1022.4 7.6 E 11.4 0.0 0.0
15:05 23.2 15.5 62 1022.3 7.6 N 11.4 0.0 0.0
15:06 23.3 15.4 61 1022.4 6.0 W 11.4 0.0 0.0
15:07 23.3 15.4 61 1022.4 10.7 NW 11.4 0.0 0.0
15:08 23.3 15.1 60 1022.5 8.3 N 11.4 0.0 0.0
15:09 23.2 15.3 61 1022.4 7.6 NW 11.4 0.0 0.0
15:10 23.1 15.2 61 1022.3 9.2 SW 12.1 0.0 0.0
15:11 23.1 15.2 61 1022.3 7.6 N 12.1 0.0 0.0
15:12 23.1 15.2 61 1022.3 7.6 W 12.1 0.0 0.0
15:13 23.1 15.2 61 1022.3 7.6 NW 12.1 0.0 0.0
15:14 23.1 15.2 61 1022.3 9.8 N 12.1 0.0 0.0
15:15 23.2 15.5 62 1022.3 7.6 N 12.1 0.0 0.0
15:16 23.2 15.5 62 1022.4 15.2 NW 15.2 0.0 0.0
15:17 23.3 15.1 60 1022.3 10.7 NW 15.2 0.0 0.0
15:18 23.2 15.0 60 1022.2 9.2 NW 15.2 0.0 0.0
15:19 23.2 15.0 60 1022.3 6.9 WNW 15.2 0.0 0.0
15:20 23.1 14.9 60 1022.2 11.4 NW 15.2 0.0 0.0
15:21 23.2 15.3 61 1022.3 9.8 WNW 15.2 0.0 0.0
15:22 23.2 15.0 60 1022.4 9.8 WNW 15.2 0.0 0.0
15:23 23.2 15.0 60 1022.3 9.8 N 15.2 0.0 0.0
15:24 23.1 14.9 60 1022.3 7.6 NW 15.2 0.0 0.0
15:25 23.1 14.7 59 1022.2 12.1 NW 15.2 0.0 0.0
15:26 23.1 15.2 61 1022.2 9.8 N 12.1 0.0 0.0
15:27 23.0 14.6 59 1022.3 15.2 SW 15.2 0.0 0.0
15:28 23.0 15.1 61 1022.4 9.8 W 15.2 0.0 0.0
15:29 23.0 14.8 60 1022.3 11.4 NW 15.2 0.0 0.0
15:30 23.0 15.1 61 1022.3 13.6 NW 15.2 0.0 0.0
15:31 23.0 14.8 60 1022.3 7.6 N 15.2 0.0 0.0
15:32 23.0 14.8 60 1022.3 7.6 N 15.2 0.0 0.0
15:33 23.0 14.6 59 1022.3 10.7 N 15.2 0.0 0.0
15:34 23.0 14.8 60 1022.4 9.8 N 15.2 0.0 0.0
15:35 22.9 15.0 61 1022.3 6.9 SW 15.2 0.0 0.0
15:36 22.9 15.0 61 1022.2 6.9 WNW 15.2 0.0 0.0
15:37 23.0 15.1 61 1022.3 10.7 WNW 15.2 0.0 0.0
15:38 23.0 14.8 60 1022.4 7.6 NW 13.6 0.0 0.0
15:39 23.0 14.6 59 1022.4 10.7 NE 13.6 0.0 0.0
15:41 23.0 15.1 61 1022.4 7.6 ENE 10.7 0.0 0.0
15:42 23.1 15.2 61 1022.3 9.8 N 10.7 0.0 0.0
15:43 23.1 14.9 60 1022.4 9.2 NW 10.7 0.0 0.0
15:44 23.1 14.9 60 1022.3 6.0 NW 10.7 0.0 0.0
15:45 23.1 14.9 60 1022.2 13.0 N 13.0 0.0 0.0
15:46 23.1 14.9 60 1022.3 5.4 SE 13.0 0.0 0.0
15:47 23.1 15.2 61 1022.3 6.0 NW 13.0 0.0 0.0
15:48 23.1 15.2 61 1022.3 8.3 NW 13.0 0.0 0.0
15:49 23.1 14.9 60 1022.4 6.9 NW 13.0 0.0 0.0
15:50 23.2 15.0 60 1022.4 6.0 NW 13.0 0.0 0.0
15:51 23.2 15.0 60 1022.4 6.0 NW 13.0 0.0 0.0
15:52 23.2 14.8 59 1022.3 11.4 N 13.0 0.0 0.0
15:53 23.1 14.7 59 1022.4 9.2 NW 13.0 0.0 0.0
15:54 23.1 14.9 60 1022.3 4.5 N 13.0 0.0 0.0
15:55 23.1 14.9 60 1022.3 6.0 N 13.0 0.0 0.0
15:56 23.2 15.0 60 1022.3 9.2 W 11.4 0.0 0.0
15:57 23.3 15.1 60 1022.4 7.6 E 11.4 0.0 0.0
15:58 23.4 15.2 60 1022.3 5.4 NW 11.4 0.0 0.0
15:59 23.5 14.8 58 1022.3 11.4 NW 11.4 0.0 0.0
16:00 23.4 14.7 58 1022.3 9.2 SW 11.4 0.0 0.0
16:01 23.4 14.7 58 1022.3 9.2 SW 11.4 0.0 0.0
16:02 23.2 14.2 57 1022.3 12.1 N 12.1 0.0 0.0
16:03 23.1 14.4 58 1022.4 9.8 NW 12.1 0.0 0.0
16:04 23.1 14.7 59 1022.3 6.9 SW 12.1 0.0 0.0
16:05 23.0 14.6 59 1022.3 9.2 E 12.1 0.0 0.0
16:06 23.0 14.6 59 1022.3 9.2 NW 13.0 0.0 0.0
16:07 23.0 14.6 59 1022.5 8.3 N 13.0 0.0 0.0
16:08 23.0 14.8 60 1022.3 9.2 N 13.0 0.0 0.0
16:09 22.9 14.5 59 1022.4 11.4 NW 13.0 0.0 0.0
16:10 23.0 14.8 60 1022.3 7.6 W 13.0 0.0 0.0
16:11 22.9 14.7 60 1022.4 9.2 NW 13.0 0.0 0.0
16:12 22.9 14.5 59 1022.3 6.9 NW 13.0 0.0 0.0
16:13 23.0 14.6 59 1022.3 7.6 S 13.0 0.0 0.0
16:14 23.0 14.6 59 1022.3 7.6 NW 13.0 0.0 0.0
16:15 23.0 14.6 59 1022.3 10.7 NW 13.0 0.0 0.0
16:16 23.0 14.6 59 1022.4 10.7 WNW 13.0 0.0 0.0
16:17 22.9 14.5 59 1022.4 10.7 N 11.4 0.0 0.0
16:18 22.9 14.5 59 1022.4 9.8 NW 11.4 0.0 0.0
16:19 22.9 15.0 61 1022.5 6.0 NW 10.7 0.0 0.0
16:20 23.0 14.8 60 1022.3 12.1 N 12.1 0.0 0.0
16:21 23.0 14.6 59 1022.4 9.8 N 12.1 0.0 0.0
16:22 22.9 14.5 59 1022.4 10.7 NW 12.1 0.0 0.0
16:23 22.8 14.4 59 1022.3 8.3 N 12.1 0.0 0.0
16:24 22.8 14.4 59 1022.2 9.2 NW 12.1 0.0 0.0
16:25 22.8 14.6 60 1022.5 8.3 NW 12.1 0.0 0.0
16:26 22.8 14.4 59 1022.3 9.8 N 12.1 0.0 0.0
16:27 22.7 14.0 58 1022.3 12.1 N 12.1 0.0 0.0
16:28 22.7 14.3 59 1022.3 6.9 NW 12.1 0.0 0.0
16:29 22.7 14.8 61 1022.3 5.4 N 12.1 0.0 0.0
16:30 22.7 14.8 61 1022.3 7.6 NE 12.1 0.0 0.0
16:31 22.8 14.9 61 1022.3 6.9 NW 12.1 0.0 0.0
16:32 22.8 14.9 61 1022.3 8.3 NW 12.1 0.0 0.0
16:33 22.8 14.9 61 1022.2 6.0 WNW 12.1 0.0 0.0
16:34 22.8 14.6 60 1022.3 5.4 NW 12.1 0.0 0.0
16:35 22.9 15.0 61 1022.4 6.9 NW 12.1 0.0 0.0
16:36 22.9 14.7 60 1022.3 6.0 NW 12.1 0.0 0.0
16:37 22.9 14.7 60 1022.4 6.9 SE 8.3 0.0 0.0
16:38 23.0 14.6 59 1022.4 9.2 SE 9.8 0.0 0.0
16:39 23.0 14.6 59 1022.3 11.4 WNW 11.4 0.0 0.0
16:40 23.0 14.3 58 1022.3 8.3 NW 11.4 0.0 0.0
16:41 23.0 14.3 58 1022.3 11.4 S 11.4 0.0 0.0
16:42 22.9 14.2 58 1022.5 9.2 NW 11.4 0.0 0.0
16:43 22.9 14.2 58 1022.5 9.2 NW 11.4 0.0 0.0
16:44 22.9 14.2 58 1022.3 9.8 WNW 11.4 0.0 0.0
16:45 22.8 14.4 59 1022.4 9.8 NW 11.4 0.0 0.0
16:46 22.8 14.4 59 1022.3 9.8 NE 11.4 0.0 0.0
16:47 22.7 14.3 59 1022.3 13.0 WNW 13.0 0.0 0.0
16:48 22.7 14.6 60 1022.2 5.4 SW 13.0 0.0 0.0
16:49 22.8 14.4 59 1022.3 10.7 N 13.0 0.0 0.0
16:50 22.7 14.0 58 1022.2 9.8 NW 13.0 0.0 0.0
16:51 22.7 14.3 59 1022.3 9.2 NW 13.0 0.0 0.0
16:52 22.6 14.5 60 1022.2 9.2 W 13.0 0.0 0.0
16:53 22.6 14.2 59 1022.3 7.6 ENE 13.0 0.0 0.0
16:54 22.6 14.5 60 1022.2 6.0 NE 13.0 0.0 0.0
16:55 22.6 14.7 61 1022.4 4.5 N 13.0 0.0 0.0
16:56 22.7 14.8 61 1022.2 9.2 NW 13.0 0.0 0.0
16:57 22.7 14.8 61 1022.3 12.1 NW 12.1 0.0 0.0
16:58 22.8 14.9 61 1022.1 10.7 NW 12.1 0.0 0.0
16:59 22.8 14.6 60 1022.2 11.4 N 12.1 0.0 0.0
17:00 22.8 14.9 61 1022.1 7.6 NW 12.1 0.0 0.0
17:01 22.8 14.9 61 1022.3 7.6 NW 12.1 0.0 0.0
17:02 22.8 14.6 60 1022.2 8.3 NW 12.1 0.0 0.0
17:03 22.8 14.9 61 1022.1 6.0 NW 12.1 0.0 0.0
17:04 22.8 14.9 61 1022.3 5.4 W 12.1 0.0 0.0
17:05 22.9 14.7 60 1022.2 7.6 W 12.1 0.0 0.0
17:06 22.8 14.4 59 1022.1 11.4 W 12.1 0.0 0.0
17:07 22.8 14.4 59 1022.2 7.6 N 12.1 0.0 0.0
17:08 22.7 14.8 61 1022.1 6.9 NW 11.4 0.0 0.0
17:09 22.8 14.9 61 1022.3 4.5 W 11.4 0.0 0.0
17:10 22.8 14.9 61 1022.2 9.2 NE 11.4 0.0 0.0
17:11 22.8 14.6 60 1022.3 9.2 N 11.4 0.0 0.0
17:12 22.7 14.3 59 1022.2 9.2 NW 11.4 0.0 0.0
17:13 22.7 14.3 59 1022.2 11.4 WNW 11.4 0.0 0.0
17:14 22.7 14.3 59 1022.3 6.0 N 11.4 0.0 0.0
17:15 22.7 14.8 61 1022.2 8.3 W 11.4 0.0 0.0
17:16 22.7 14.6 60 1022.3 9.8 W 11.4 0.0 0.0
17:17 22.7 14.6 60 1022.3 4.5 NW 11.4 0.0 0.0
17:18 22.7 14.6 60 1022.1 7.6 W 11.4 0.0 0.0
17:19 22.7 14.3 59 1022.2 11.4 W 11.4 0.0 0.0
17:20 22.7 14.6 60 1022.3 6.0 W 11.4 0.0 0.0
17:21 22.6 14.5 60 1022.1 8.3 W 11.4 0.0 0.0
17:22 22.6 14.7 61 1022.2 6.0 WSW 11.4 0.0 0.0
17:23 22.7 14.8 61 1022.2 6.9 NW 11.4 0.0 0.0
17:24 22.7 14.8 61 1022.3 13.0 SW 13.0 0.0 0.0
17:25 22.7 14.8 61 1022.2 11.4 N 13.0 0.0 0.0
17:26 22.7 14.6 60 1022.2 6.9 W 13.0 0.0 0.0
17:27 22.7 14.6 60 1022.1 6.0 NE 13.0 0.0 0.0
17:28 22.7 14.6 60 1022.3 7.6 NE 13.0 0.0 0.0
17:29 22.6 14.7 61 1022.2 6.0 SW 13.0 0.0 0.0
17:30 22.7 14.3 59 1022.3 9.8 WNW 13.0 0.0 0.0
17:31 22.7 14.3 59 1022.2 9.8 NW 13.0 0.0 0.0
17:32 22.7 14.0 58 1022.2 11.4 NW 13.0 0.0 0.0
17:33 22.6 13.9 58 1022.2 8.3 N 13.0 0.0 0.0
17:34 22.5 14.1 59 1022.3 8.3 N 11.4 0.0 0.0
17:35 22.5 14.1 59 1022.3 9.2 N 11.4 0.0 0.0
17:36 22.5 14.1 59 1022.2 6.9 NW 11.4 0.0 0.0
17:37 22.5 13.8 58 1022.3 9.2 NW 11.4 0.0 0.0
17:38 22.5 13.8 58 1022.3 8.3 NW 11.4 0.0 0.0
17:39 22.4 13.7 58 1022.3 9.8 E 11.4 0.0 0.0
17:40 22.5 13.8 58 1022.2 7.6 NW 11.4 0.0 0.0
17:41 22.5 14.1 59 1022.2 3.8 W 11.4 0.0 0.0
17:42 22.6 14.5 60 1022.2 6.9 NW 9.8 0.0 0.0
17:43 22.6 14.5 60 1022.2 6.9 NW 9.8 0.0 0.0
17:44 22.6 14.2 59 1022.1 5.4 N 9.8 0.0 0.0
17:45 22.6 14.2 59 1022.3 6.9 N 9.8 0.0 0.0
17:46 22.6 14.5 60 1022.3 9.2 NW 9.8 0.0 0.0
17:47 22.6 14.2 59 1022.1 7.6 NW 9.8 0.0 0.0
17:48 22.6 13.9 58 1022.2 7.6 N 9.8 0.0 0.0
17:49 22.6 13.9 58 1022.2 4.5 NW 9.8 0.0 0.0
17:50 22.6 13.9 58 1022.3 6.0 SW 9.2 0.0 0.0
17:51 22.6 14.2 59 1022.4 11.4 N 11.4 0.0 0.0
17:52 22.6 13.9 58 1022.3 8.3 SW 12.1 0.0 0.0
17:53 22.4 13.5 57 1022.1 6.9 SW 12.1 0.0 0.0
17:54 22.4 13.7 58 1022.2 8.3 NW 12.1 0.0 0.0
17:55 22.3 13.7 58 1022.2 9.2 NE 12.1 0.0 0.0
17:56 22.3 13.7 58 1022.1 13.0 N 13.0 0.0 0.0
17:57 22.3 13.7 58 1022.1 8.3 N 13.0 0.0 0.0
17:58 22.3 13.7 58 1022.1 11.4 N 13.0 0.0 0.0
17:59 22.3 13.9 59 1022.3 9.2 NW 13.0 0.0 0.0
18:00 22.2 13.8 59 1022.1 6.0 SW 13.0 0.0 0.0
18:01 22.2 13.6 58 1022.2 13.0 NW 13.0 0.0 0.0
18:02 22.2 13.6 58 1022.2 13.0 NW 13.0 0.0 0.0
18:03 22.2 13.6 58 1022.1 7.6 NW 13.0 0.0 0.0
18:04 22.2 13.6 58 1022.1 6.0 N 13.0 0.0 0.0
18:05 22.2 13.8 59 1022.1 7.6 N 13.0 0.0 0.0
18:06 22.2 13.8 59 1022.0 11.4 N 13.0 0.0 0.0
18:07 22.2 13.8 59 1022.2 6.9 NE 13.0 0.0 0.0
18:08 22.2 13.8 59 1022.1 9.8 NW 13.0 0.0 0.0
18:09 22.2 13.6 58 1022.1 12.1 NW 13.0 0.0 0.0
18:10 22.2 13.6 58 1022.1 10.7 NW 13.0 0.0 0.0
18:11 22.2 13.8 59 1022.2 6.0 W 13.0 0.0 0.0
18:12 22.2 13.8 59 1022.3 5.4 W 12.1 0.0 0.0
18:13 22.2 13.8 59 1022.1 9.2 WNW 12.1 0.0 0.0
18:14 22.2 13.8 59 1022.1 9.8 NE 12.1 0.0 0.0
18:15 22.2 13.6 58 1022.1 8.3 WNW 12.1 0.0 0.0
18:16 22.1 13.5 58 1022.2 8.3 N 12.1 0.0 0.0
18:17 22.1 13.7 59 1022.1 7.6 N 12.1 0.0 0.0
18:18 22.0 13.6 59 1022.1 6.9 NW 12.1 0.0 0.0
18:19 22.0 13.9 60 1022.3 9.2 NW 10.7 0.0 0.0
18:20 22.0 13.9 60 1022.3 9.2 NW 10.7 0.0 0.0
18:21 22.0 13.9 60 1022.2 6.9 NE 10.7 0.0 0.0
18:22 22.0 13.9 60 1022.1 6.9 NE 10.7 0.0 0.0
18:23 22.0 13.9 60 1022.1 7.6 NW 10.7 0.0 0.0
18:24 22.0 13.9 60 1022.1 6.0 NW 10.7 0.0 0.0
18:25 22.1 14.0 60 1022.0 5.4 WNW 10.7 0.0 0.0
18:26 22.1 14.2 61 1022.0 6.0 N 10.7 0.0 0.0
18:27 22.1 14.2 61 1022.2 9.2 N 10.7 0.0 0.0
18:28 22.1 14.2 61 1022.2 9.2 NW 10.7 0.0 0.0
18:29 22.1 14.2 61 1022.0 8.3 SW 10.7 0.0 0.0
18:30 22.0 14.1 61 1022.0 6.0 NW 10.7 0.0 0.0
18:31 22.0 14.1 61 1022.1 5.4 NW 10.7 0.0 0.0
18:32 22.0 14.1 61 1022.1 6.0 N 10.7 0.0 0.0
18:33 22.0 14.1 61 1022.0 6.9 NE 10.7 0.0 0.0
18:34 22.0 14.1 61 1022.1 9.8 N 9.8 0.0 0.0
18:35 22.0 14.1 61 1022.0 8.3 N 9.8 0.0 0.0
18:36 22.0 14.1 61 1022.1 9.2 SE 9.8 0.0 0.0
18:37 22.0 14.1 61 1022.0 4.5 WNW 9.8 0.0 0.0
18:38 21.9 14.1 61 1022.0 9.2 N 9.8 0.0 0.0
18:39 21.9 14.1 61 1022.0 9.2 N 9.8 0.0 0.0
18:40 22.0 14.1 61 1022.1 6.0 W 9.8 0.0 0.0
18:41 21.9 14.1 61 1022.1 7.6 NW 9.8 0.0 0.0
18:42 21.9 14.1 61 1022.2 6.0 N 9.8 0.0 0.0
18:43 22.0 14.1 61 1021.9 6.9 N 9.8 0.0 0.0
18:44 21.9 14.1 61 1021.9 8.3 NE 9.8 0.0 0.0
18:45 21.9 14.1 61 1022.0 5.4 ENE 9.8 0.0 0.0
18:46 21.9 13.8 60 1021.9 9.8 NE 9.8 0.0 0.0
18:47 21.9 13.8 60 1022.1 7.6 N 9.8 0.0 0.0
18:48 21.9 14.1 61 1022.1 4.5 N 9.8 0.0 0.0
18:49 21.9 14.1 61 1022.2 6.9 NE 9.8 0.0 0.0
18:50 21.9 14.1 61 1022.2 4.5 NW 9.8 0.0 0.0
18:51 21.9 14.1 61 1021.9 7.6 N 9.8 0.0 0.0
18:52 21.9 14.1 61 1022.1 7.6 NW 9.8 0.0 0.0
18:53 21.9 14.1 61 1022.1 7.6 NW 9.8 0.0 0.0
18:54 21.9 13.8 60 1022.2 7.6 NW 9.8 0.0 0.0
18:55 21.9 14.1 61 1022.1 6.9 NW 9.8 0.0 0.0
18:56 21.9 14.1 61 1022.1 8.3 NW 8.3 0.0 0.0
18:57 21.8 14.0 61 1022.2 9.2 W 9.2 0.0 0.0
18:58 21.8 14.0 61 1022.2 9.2 W 9.2 0.0 0.0
18:59 21.8 14.0 61 1022.1 6.0 W 9.2 0.0 0.0
19:00 21.8 14.0 61 1022.2 5.4 N 9.2 0.0 0.0
19:01 21.8 14.0 61 1022.1 10.7 NE 10.7 0.0 0.0
19:02 21.8 14.0 61 1022.1 9.2 NE 10.7 0.0 0.0
19:03 21.8 14.0 61 1022.1 5.4 NW 10.7 0.0 0.0
19:04 21.7 13.6 60 1022.2 14.5 W 14.5 0.0 0.0
19:05 21.7 13.9 61 1022.2 8.3 N 14.5 0.0 0.0
19:06 21.6 13.8 61 1022.1 3.8 N 14.5 0.0 0.0
19:07 21.6 13.8 61 1022.1 9.8 NE 14.5 0.0 0.0
19:08 21.6 13.8 61 1022.1 3.1 NW 14.5 0.0 0.0
19:09 21.6 13.8 61 1022.1 5.4 SE 14.5 0.0 0.0
19:10 21.6 13.8 61 1022.1 6.0 SE 14.5 0.0 0.0
19:11 21.6 13.8 61 1022.1 5.4 NW 14.5 0.0 0.0
19:13 21.5 13.7 61 1022.2 6.0 N 14.5 0.0 0.0
19:14 21.5 13.7 61 1022.2 6.0 WNW 9.8 0.0 0.0
19:15 21.6 13.8 61 1022.2 4.5 W 9.8 0.0 0.0
19:16 21.6 13.8 61 1022.2 6.9 N 9.8 0.0 0.0
19:17 21.6 13.8 61 1022.2 3.8 NE 8.3 0.0 0.0
19:18 21.6 13.8 61 1022.1 6.0 N 6.9 0.0 0.0
19:19 21.6 13.8 61 1022.2 9.8 E 9.8 0.0 0.0
19:20 21.6 13.8 61 1022.0 6.9 WNW 9.8 0.0 0.0
19:21 21.5 13.7 61 1022.1 6.9 NW 9.8 0.0 0.0
19:22 21.5 13.7 61 1021.9 5.4 N 9.8 0.0 0.0
19:23 21.5 13.7 61 1022.1 6.0 NE 9.8 0.0 0.0
19:24 21.5 13.7 61 1022.1 7.6 N 9.8 0.0 0.0
19:25 21.5 13.7 61 1022.1 4.5 NE 9.8 0.0 0.0
19:26 21.5 13.7 61 1022.2 3.8 N 9.8 0.0 0.0
19:27 21.5 13.7 61 1022.2 7.6 N 9.8 0.0 0.0
19:28 21.5 13.7 61 1022.1 6.0 N 9.8 0.0 0.0
19:29 21.5 13.7 61 1022.4 9.8 NE 9.8 0.0 0.0
19:30 21.5 13.7 61 1022.2 5.4 SW 9.8 0.0 0.0
19:31 21.5 13.7 61 1022.3 8.3 NW 9.8 0.0 0.0
19:32 21.4 13.6 61 1022.3 3.8 N 9.8 0.0 0.0
19:33 21.4 13.8 62 1022.2 5.4 NW 9.8 0.0 0.0
19:34 21.4 13.8 62 1022.2 6.0 E 9.8 0.0 0.0
19:35 21.4 13.8 62 1022.3 7.6 SW 9.8 0.0 0.0
19:36 21.4 13.8 62 1022.2 6.0 NE 9.8 0.0 0.0
19:37 21.4 13.8 62 1022.2 3.1 NW 9.8 0.0 0.0
19:38 21.3 13.7 62 1022.2 6.0 E 9.8 0.0 0.0
19:39 21.3 13.7 62 1022.2 8.3 N 8.3 0.0 0.0
19:40 21.3 13.7 62 1022.2 8.3 N 8.3 0.0 0.0
19:41 21.3 13.7 62 1022.2 10.7 NW 10.7 0.0 0.0
19:42 21.3 14.0 63 1022.2 3.1 NE 10.7 0.0 0.0
19:43 21.2 13.9 63 1022.3 9.2 N 10.7 0.0 0.0
19:44 21.2 13.9 63 1022.3 5.4 E 10.7 0.0 0.0
19:45 21.1 13.8 63 1022.3 6.9 N 10.7 0.0 0.0
19:46 21.1 13.8 63 1022.1 9.8 N 10.7 0.0 0.0
19:47 21.1 13.8 63 1022.3 9.2 N 10.7 0.0 0.0
19:48 21.0 13.7 63 1022.4 6.0 NE 10.7 0.0 0.0
19:49 21.0 13.7 63 1022.2 4.5 SW 10.7 0.0 0.0
19:50 20.9 13.6 63 1022.3 6.9 NW 10.7 0.0 0.0
19:51 20.9 13.6 63 1022.3 6.9 NW 9.8 0.0 0.0
19:52 20.9 13.6 63 1022.3 4.5 NW 9.8 0.0 0.0
19:53 20.9 13.6 63 1022.3 6.0 NW 9.8 0.0 0.0
19:54 20.8 13.5 63 1022.4 4.5 NE 9.8 0.0 0.0
19:55 20.8 13.5 63 1022.2 9.2 N 9.8 0.0 0.0
19:56 20.8 13.5 63 1022.3 9.2 NW 9.2 0.0 0.0
19:57 20.7 13.4 63 1022.2 5.4 NW 9.2 0.0 0.0
19:58 20.7 13.4 63 1022.2 5.4 NW 9.2 0.0 0.0
19:59 20.7 13.7 64 1022.2 6.0 NW 9.2 0.0 0.0
20:00 20.7 13.7 64 1022.2 6.0 NW 9.2 0.0 0.0
20:01 20.7 13.7 64 1022.2 7.6 NW 9.2 0.0 0.0
20:02 20.7 13.7 64 1022.3 4.5 NE 9.2 0.0 0.0
20:03 20.6 13.6 64 1022.2 6.9 NE 9.2 0.0 0.0
20:04 20.6 13.6 64 1022.2 4.5 W 9.2 0.0 0.0
20:05 20.6 13.6 64 1022.2 7.6 N 9.2 0.0 0.0
20:06 20.5 13.5 64 1022.1 8.3 N 9.2 0.0 0.0
20:07 20.5 13.5 64 1022.2 4.5 W 8.3 0.0 0.0
20:09 20.4 13.4 64 1022.2 6.0 NW 8.3 0.0 0.0
20:10 20.4 13.4 64 1022.2 6.9 W 8.3 0.0 0.0
20:11 20.4 13.4 64 1022.3 7.6 N 8.3 0.0 0.0
20:12 20.4 13.6 65 1022.1 9.8 N 9.8 0.0 0.0
20:13 20.3 13.5 65 1022.2 8.3 NW 9.8 0.0 0.0
20:14 20.3 13.5 65 1022.2 8.3 NW 9.8 0.0 0.0
20:15 20.4 13.6 65 1022.2 10.7 NW 10.7 0.0 0.0
20:16 20.2 13.4 65 1022.1 9.8 NW 10.7 0.0 0.0
20:17 20.1 13.3 65 1022.1 6.0 SW 10.7 0.0 0.0
20:18 20.1 13.3 65 1022.1 6.0 SW 10.7 0.0 0.0
20:19 20.0 13.5 66 1022.1 9.2 W 10.7 0.0 0.0
20:20 19.9 13.4 66 1022.1 6.9 NW 10.7 0.0 0.0
20:21 19.9 13.4 66 1022.2 6.0 NW 10.7 0.0 0.0
20:22 19.8 13.3 66 1022.1 9.2 NW 10.7 0.0 0.0
20:23 19.7 13.2 66 1022.0 13.0 N 13.0 0.0 0.0
20:24 19.7 13.2 66 1022.3 9.8 NW 13.0 0.0 0.0
20:25 19.6 13.1 66 1022.0 10.7 NW 13.0 0.0 0.0
20:26 19.6 13.1 66 1022.0 9.2 NW 13.0 0.0 0.0
20:27 19.5 13.0 66 1022.1 11.4 NW 13.0 0.0 0.0
20:29 19.3 13.0 67 1022.2 10.7 N 13.6 0.0 0.0
20:30 19.3 13.0 67 1022.1 8.3 N 13.6 0.0 0.0
20:31 19.2 12.9 67 1022.1 13.6 NW 13.6 0.0 0.0
20:32 19.1 12.8 67 1022.1 13.0 NW 13.6 0.0 0.0
20:33 19.0 12.7 67 1022.0 14.5 NW 14.5 0.0 0.0
20:34 19.0 12.7 67 1022.1 11.4 NW 14.5 0.0 0.0
20:35 18.9 12.9 68 1022.1 8.3 N 14.5 0.0 0.0
20:36 18.9 12.9 68 1021.9 10.7 WNW 14.5 0.0 0.0
20:37 18.8 12.8 68 1022.0 6.0 NW 14.5 0.0 0.0
20:38 18.8 12.8 68 1022.0 6.0 N 14.5 0.0 0.0
20:39 18.6 12.6 68 1022.1 11.4 NW 14.5 0.0 0.0
20:40 18.6 12.6 68 1022.0 7.6 N 14.5 0.0 0.0
20:41 18.5 12.7 69 1022.1 11.4 NW 14.5 0.0 0.0
20:42 18.5 12.7 69 1022.0 8.3 N 14.5 0.0 0.0
20:43 18.4 12.6 69 1022.1 7.6 N 14.5 0.0 0.0
20:44 18.3 12.5 69 1022.1 9.2 NW 12.1 0.0 0.0
20:45 18.3 12.7 70 1022.2 8.3 N 12.1 0.0 0.0
20:46 18.2 12.6 70 1022.1 12.1 W 12.1 0.0 0.0
20:48 18.1 12.6 70 1022.1 6.9 SW 15.9 0.0 0.0
20:49 18.1 12.8 71 1022.1 8.3 N 15.9 0.0 0.0
20:50 18.0 12.7 71 1022.2 5.4 NW 15.9 0.0 0.0
20:51 18.0 12.7 71 1022.1 6.9 NW 15.9 0.0 0.0
20:52 17.9 12.6 71 1022.2 9.8 W 15.9 0.0 0.0
20:53 17.9 12.6 71 1022.0 7.6 NW 15.9 0.0 0.0
20:54 17.9 12.8 72 1022.1 5.4 SE 15.9 0.0 0.0
20:55 17.8 12.7 72 1022.1 6.9 NE 15.9 0.0 0.0
20:56 17.8 12.7 72 1022.1 6.0 NW 15.9 0.0 0.0
20:57 17.8 12.7 72 1022.0 5.4 NE 9.8 0.0 0.0
20:58 17.8 12.7 72 1022.0 7.6 WNW 9.8 0.0 0.0
20:59 17.7 12.6 72 1022.2 9.8 N 9.8 0.0 0.0
21:00 17.7 12.6 72 1022.1 4.5 NE 9.8 0.0 0.0
21:01 17.7 12.6 72 1022.2 4.5 NE 9.8 0.0 0.0
21:02 17.7 12.6 72 1022.1 4.5 NE 9.8 0.0 0.0
21:03 17.7 12.6 72 1022.1 4.5 NE 9.8 0.0 0.0
21:04 17.7 12.6 72 1022.1 4.5 NE 9.8 0.0 0.0
21:05 17.7 12.6 72 1022.3 4.5 NE 9.8 0.0 0.0
21:06 17.6 12.7 73 1022.3 6.0 N 9.8 0.0 0.0
21:07 17.5 12.6 73 1022.3 5.4 W 9.8 0.0 0.0
21:08 17.5 12.6 73 1022.2 8.3 N 9.8 0.0 0.0
21:10 17.4 12.5 73 1022.3 6.0 NW 8.3 0.0 0.0
21:11 17.4 12.5 73 1022.3 6.0 ENE 8.3 0.0 0.0
21:12 17.4 12.5 73 1022.1 5.4 N 8.3 0.0 0.0
21:13 17.3 12.6 74 1022.3 3.8 NE 8.3 0.0 0.0
21:14 17.3 12.6 74 1022.2 6.9 N 8.3 0.0 0.0
21:15 17.3 12.6 74 1022.2 4.5 NE 8.3 0.0 0.0
21:16 17.3 12.6 74 1022.2 5.4 WNW 8.3 0.0 0.0
21:17 17.2 12.5 74 1022.3 6.9 WNW 8.3 0.0 0.0
21:18 17.2 12.5 74 1022.3 6.9 WNW 8.3 0.0 0.0
21:19 17.2 12.5 74 1022.3 5.4 WNW 7.6 0.0 0.0
21:20 17.2 12.5 74 1022.2 3.8 NW 7.6 0.0 0.0
21:21 17.1 12.4 74 1022.2 4.5 E 7.6 0.0 0.0
21:22 17.1 12.4 74 1022.2 4.5 NE 7.6 0.0 0.0
21:23 17.1 12.4 74 1022.4 8.3 NE 8.3 0.0 0.0
21:24 17.0 12.3 74 1022.3 5.4 N 8.3 0.0 0.0
21:25 17.0 12.3 74 1022.3 5.4 NW 8.3 0.0 0.0
21:26 17.0 12.5 75 1022.2 3.8 SW 8.3 0.0 0.0
21:27 17.0 12.5 75 1022.3 3.8 NW 8.3 0.0 0.0
21:29 16.9 12.4 75 1022.4 4.5 N 9.2 0.0 0.0
21:30 16.9 12.4 75 1022.2 5.4 W 9.2 0.0 0.0
21:31 16.8 12.4 75 1022.2 3.8 W 9.2 0.0 0.0
21:32 16.8 12.4 75 1022.3 7.6 W 9.2 0.0 0.0
21:33 16.8 12.4 75 1022.2 5.4 N 9.2 0.0 0.0
21:34 16.7 12.3 75 1022.1 6.0 NW 9.2 0.0 0.0
21:35 16.7 12.3 75 1022.3 6.9 NW 9.2 0.0 0.0
21:36 16.7 12.3 75 1022.3 6.0 NW 9.2 0.0 0.0
21:37 16.7 12.5 76 1022.3 6.9 NW 9.2 0.0 0.0
21:38 16.7 12.5 76 1022.2 10.7 N 10.7 0.0 0.0
21:39 16.7 12.5 76 1022.3 9.2 WSW 10.7 0.0 0.0
21:40 16.6 12.4 76 1022.4 7.6 N 10.7 0.0 0.0
21:41 16.6 12.4 76 1022.3 7.6 NE 10.7 0.0 0.0
21:42 16.6 12.4 76 1022.3 6.0 E 10.7 0.0 0.0
21:43 16.6 12.4 76 1022.3 3.8 NW 10.7 0.0 0.0
21:44 16.6 12.4 76 1022.4 9.8 NW 10.7 0.0 0.0
21:45 16.6 12.4 76 1022.3 10.7 S 10.7 0.0 0.0
21:46 16.6 12.4 76 1022.4 3.8 NE 10.7 0.0 0.0
21:49 16.5 12.5 77 1022.3 5.4 N 10.7 0.0 0.0
21:50 16.5 12.5 77 1022.5 3.1 SE 10.7 0.0 0.0
21:51 16.4 12.4 77 1022.4 3.8 NE 10.7 0.0 0.0
21:52 16.5 12.5 77 1022.5 3.1 SE 10.7 0.0 0.0
21:53 16.4 12.4 77 1022.4 6.9 N 10.7 0.0 0.0
21:54 16.4 12.4 77 1022.5 6.0 N 10.7 0.0 0.0
21:55 16.4 12.4 77 1022.5 3.1 N 7.6 0.0 0.0
21:56 16.4 12.4 77 1022.5 4.5 WNW 7.6 0.0 0.0
21:57 16.4 12.4 77 1022.4 6.9 SW 7.6 0.0 0.0
21:58 16.4 12.4 77 1022.4 3.8 N 7.6 0.0 0.0
21:59 16.4 12.4 77 1022.4 5.4 NW 7.6 0.0 0.0
22:00 16.4 12.4 77 1022.4 6.9 N 7.6 0.0 0.0
22:01 16.4 12.4 77 1022.5 6.0 N 7.6 0.0 0.0
22:02 16.3 12.3 77 1022.6 4.5 N 7.6 0.0 0.0
22:03 16.3 12.3 77 1022.5 5.4 W 7.6 0.0 0.0
22:04 16.3 12.3 77 1022.7 6.0 N 7.6 0.0 0.0
22:05 16.3 12.3 77 1022.7 4.5 NNE 7.6 0.0 0.0
22:06 16.3 12.3 77 1022.6 5.4 SE 7.6 0.0 0.0
22:08 16.2 12.4 78 1022.5 3.8 NW 7.6 0.0 0.0
22:09 16.2 12.4 78 1022.7 3.8 NE 7.6 0.0 0.0
22:10 16.2 12.4 78 1022.6 4.5 N 7.6 0.0 0.0
22:11 16.2 12.4 78 1022.5 4.5 E 7.6 0.0 0.0
22:12 16.2 12.4 78 1022.6 5.4 NW 7.6 0.0 0.0
22:13 16.1 12.3 78 1022.5 7.6 NE 7.6 0.0 0.0
22:14 16.1 12.3 78 1022.6 9.8 NW 9.8 0.0 0.0
22:15 16.1 12.3 78 1022.6 9.8 NW 9.8 0.0 0.0
22:16 16.1 12.3 78 1022.6 6.0 NW 9.8 0.0 0.0
22:17 16.1 12.3 78 1022.7 3.1 NW 9.8 0.0 0.0
22:18 16.1 12.3 78 1022.5 5.4 NW 9.8 0.0 0.0
22:19 16.1 12.3 78 1022.5 4.5 SW 9.8 0.0 0.0
22:20 16.1 12.3 78 1022.7 5.4 N 9.8 0.0 0.0
22:21 16.1 12.5 79 1022.6 3.8 WSW 9.8 0.0 0.0
22:22 16.1 12.5 79 1022.6 6.0 NW 9.8 0.0 0.0
22:23 16.1 12.5 79 1022.7 3.8 N 9.8 0.0 0.0
22:24 16.1 12.5 79 1022.7 7.6 N 9.8 0.0 0.0
22:25 16.1 12.5 79 1022.6 6.0 S 7.6 0.0 0.0
22:27 16.1 12.5 79 1022.8 5.4 N 7.6 0.0 0.0
22:28 16.0 12.4 79 1022.5 5.4 S 7.6 0.0 0.0
22:29 16.0 12.4 79 1022.5 4.5 WNW 7.6 0.0 0.0
22:30 16.1 12.5 79 1022.7 3.8 N 7.6 0.0 0.0
22:31 16.1 12.5 79 1022.7 3.8 NW 7.6 0.0 0.0
22:32 16.1 12.5 79 1022.8 3.8 N 7.6 0.0 0.0
22:33 16.0 12.4 79 1022.6 7.6 NW 7.6 0.0 0.0
22:34 16.0 12.4 79 1022.6 7.6 NW 7.6 0.0 0.0
22:35 16.0 12.4 79 1022.7 3.8 E 7.6 0.0 0.0
22:36 16.0 12.4 79 1022.7 3.8 NE 7.6 0.0 0.0
22:37 16.0 12.4 79 1022.8 4.5 NE 7.6 0.0 0.0
22:38 16.0 12.6 80 1022.8 3.1 N 7.6 0.0 0.0
22:39 16.0 12.6 80 1022.7 4.5 NE 7.6 0.0 0.0
22:40 16.0 12.6 80 1022.7 5.4 N 7.6 0.0 0.0
22:41 16.0 12.6 80 1022.7 7.6 N 7.6 0.0 0.0
22:42 16.0 12.6 80 1022.7 3.1 N 7.6 0.0 0.0
22:43 16.0 12.6 80 1022.8 6.0 N 7.6 0.0 0.0
22:44 16.0 12.6 80 1022.7 7.6 NW 7.6 0.0 0.0
22:46 15.9 12.5 80 1022.8 3.1 NE 7.6 0.0 0.0
22:47 15.9 12.5 80 1022.7 6.0 N 7.6 0.0 0.0
22:48 15.9 12.5 80 1022.8 3.8 SE 7.6 0.0 0.0
22:49 15.9 12.5 80 1022.7 6.9 N 7.6 0.0 0.0
22:50 15.9 12.5 80 1022.8 3.8 NE 7.6 0.0 0.0
22:51 15.9 12.5 80 1022.7 3.8 NW 7.6 0.0 0.0
22:52 15.9 12.5 80 1022.8 4.5 WSW 7.6 0.0 0.0
22:53 15.8 12.4 80 1022.8 4.5 NW 7.6 0.0 0.0
22:54 15.8 12.4 80 1022.8 6.0 NW 7.6 0.0 0.0
22:55 15.8 12.4 80 1022.7 6.0 NW 7.6 0.0 0.0
22:56 15.8 12.4 80 1022.7 3.8 W 6.9 0.0 0.0
22:57 15.8 12.4 80 1022.9 4.5 WNW 6.9 0.0 0.0
22:58 15.8 12.4 80 1022.6 3.1 NW 6.9 0.0 0.0
22:59 15.8 12.4 80 1022.8 3.1 WNW 6.9 0.0 0.0
23:00 15.8 12.4 80 1022.8 6.9 N 6.9 0.0 0.0
23:01 15.8 12.4 80 1022.7 4.5 N 6.9 0.0 0.0
23:02 15.8 12.4 80 1022.8 4.5 N 6.9 0.0 0.0
23:03 15.8 12.4 80 1022.8 4.5 N 6.9 0.0 0.0
23:04 15.8 12.4 80 1022.8 4.5 N 6.9 0.0 0.0
23:06 15.7 12.3 80 1022.8 4.5 N 6.9 0.0 0.0
23:07 15.7 12.3 80 1022.8 7.6 N 7.6 0.0 0.0
23:08 15.7 12.5 81 1022.8 3.8 NW 7.6 0.0 0.0
23:09 15.7 12.5 81 1022.8 3.8 S 7.6 0.0 0.0
23:10 15.7 12.5 81 1022.7 3.1 E 7.6 0.0 0.0
23:12 15.7 12.5 81 1022.8 7.6 NW 7.6 0.0 0.0
23:13 15.7 12.5 81 1022.8 7.6 NW 7.6 0.0 0.0
23:14 15.7 12.5 81 1022.8 4.5 NW 7.6 0.0 0.0
23:15 15.6 12.4 81 1022.8 3.8 N 7.6 0.0 0.0
23:16 15.6 12.4 81 1022.7 4.5 NW 7.6 0.0 0.0
23:17 15.6 12.4 81 1022.8 3.1 NW 7.6 0.0 0.0
23:18 15.6 12.4 81 1022.8 9.2 NE 9.2 0.0 0.0
23:19 15.6 12.4 81 1022.8 3.8 W 9.2 0.0 0.0
23:20 15.6 12.4 81 1022.8 3.8 W 9.2 0.0 0.0
23:21 15.6 12.4 81 1022.8 3.1 NW 9.2 0.0 0.0
23:22 15.6 12.4 81 1022.8 4.5 NW 9.2 0.0 0.0
23:23 15.6 12.4 81 1022.8 4.5 N 9.2 0.0 0.0
23:24 15.6 12.4 81 1022.8 4.5 NE 9.2 0.0 0.0
23:25 15.6 12.4 81 1022.9 4.5 WNW 9.2 0.0 0.0
23:26 15.6 12.4 81 1022.7 4.5 N 9.2 0.0 0.0
23:27 15.6 12.4 81 1022.8 3.8 NE 9.2 0.0 0.0
23:28 15.6 12.5 82 1022.8 4.5 NE 9.2 0.0 0.0
23:29 15.6 12.5 82 1022.8 4.5 N 6.9 0.0 0.0
23:30 15.6 12.5 82 1022.8 4.5 N 6.9 0.0 0.0
23:31 15.6 12.5 82 1022.9 3.1 N 6.9 0.0 0.0
23:32 15.6 12.5 82 1022.8 3.8 NW 6.9 0.0 0.0
23:33 15.6 12.5 82 1022.8 4.5 NW 6.9 0.0 0.0
23:34 15.6 12.5 82 1022.8 3.8 SSW 6.9 0.0 0.0
23:35 15.6 12.5 82 1022.9 6.9 N 6.9 0.0 0.0
23:37 15.6 12.5 82 1023.0 3.1 E 6.9 0.0 0.0
23:38 15.6 12.5 82 1023.0 3.8 SW 6.9 0.0 0.0
23:39 15.6 12.5 82 1023.0 3.1 NE 6.9 0.0 0.0
23:40 15.6 12.5 82 1023.0 3.8 W 6.9 0.0 0.0
23:41 15.6 12.5 82 1023.1 5.4 NW 6.9 0.0 0.0
23:42 15.6 12.5 82 1023.0 6.9 N 6.9 0.0 0.0
23:43 15.6 12.5 82 1023.0 4.5 N 6.9 0.0 0.0
23:44 15.6 12.5 82 1022.9 6.9 S 6.9 0.0 0.0
23:45 15.6 12.5 82 1023.1 3.8 N 6.9 0.0 0.0
23:46 15.6 12.7 83 1023.1 5.4 NW 6.9 0.0 0.0
23:47 15.6 12.7 83 1023.0 5.4 NW 6.9 0.0 0.0
23:48 15.6 12.7 83 1023.0 6.9 NE 6.9 0.0 0.0
23:49 15.6 12.7 83 1023.0 4.5 N 6.9 0.0 0.0
23:50 15.6 12.7 83 1023.0 4.5 NE 6.9 0.0 0.0
23:51 15.6 12.7 83 1023.0 3.1 N 6.9 0.0 0.0
23:52 15.6 12.7 83 1023.0 3.1 NW 6.9 0.0 0.0
23:53 15.5 12.6 83 1023.0 8.3 NE 8.3 0.0 0.0
23:54 15.6 12.7 83 1023.0 6.0 N 8.3 0.0 0.0
23:55 15.6 12.7 83 1022.9 5.4 N 8.3 0.0 0.0
23:56 15.6 12.7 83 1023.0 3.8 NW 8.3 0.0 0.0
23:57 15.6 12.7 83 1023.0 4.5 N 8.3 0.0 0.0
23:58 15.5 12.6 83 1022.8 6.0 NW 8.3 0.0 0.0
23:59 15.6 12.7 83 1022.8 3.8 NE 8.3 0.0 0.0

UK - WEATHER STATION TOPSITES - UK World Weather Websites

This is a private weather station, never base important decisions or events on data from this weather station. Although every effort has been made to make the data as accurate as possible it does not meet MetOffice standards. It is proved as a guide of local weather conditions. We accept no liability for any loss which may arise from use of the data.

Copyright © Carnkie Weather 2009 - 2018.